Observation data for Stamford on 02/14/2018      Previous  Date  Next       Current Mesonet Observations  Soil Data  Daily Summary Page  Observations in Plain Language
KST2 140600Z 15009KT 09/05 A3026 RMK A01 T00880050  RH  077%=      5-min Rain = 0
KST2 140601Z 15009KT 09/05 A3026 RMK A01 T00880050  RH  077%=      5-min Rain = 0
KST2 140602Z 15009KT 09/05 A3026 RMK A01 T00880050  RH  077%=      5-min Rain = 0
KST2 140603Z 15009KT 09/05 A3026 RMK A01 T00880050  RH  077%=      5-min Rain = 0
KST2 140604Z 15009KT 09/05 A3026 RMK A01 T00880050  RH  077%=      5-min Rain = 0
KST2 140605Z 15009KT 09/05 A3026 RMK A01 T00880050  RH  077%=      5-min Rain = 0
KST2 140606Z 15009KT 09/05 A3026 RMK A01 T00880050  RH  077%=      5-min Rain = 0
KST2 140607Z 15009KT 09/05 A3025 RMK A01 T00880050  RH  077%=      5-min Rain = 0
KST2 140608Z 15010KT 09/05 A3025 RMK A01 T00880050  RH  077%=      5-min Rain = 0
KST2 140609Z 15010KT 09/05 A3025 RMK A01 T00880050  RH  077%=      5-min Rain = 0
KST2 140610Z 14010KT 09/05 A3025 RMK A01 T00880050  RH  077%=      5-min Rain = 0
KST2 140611Z 15010KT 09/05 A3025 RMK A01 T00880050  RH  077%=      5-min Rain = 0
KST2 140612Z 15010KT 09/05 A3025 RMK A01 T00880051  RH  077%=      5-min Rain = 0
KST2 140613Z 15010KT 09/05 A3025 RMK A01 T00880051  RH  077%=      5-min Rain = 0
KST2 140614Z 15009KT 09/05 A3025 RMK A01 T00880050  RH  077%=      5-min Rain = 0
KST2 140615Z 16009KT 09/05 A3026 RMK A01 T00880051  RH  078%=      5-min Rain = 0
KST2 140616Z 16009KT 09/05 A3026 RMK A01 T00880051  RH  077%=      5-min Rain = 0
KST2 140617Z 16009KT 09/05 A3026 RMK A01 T00890051  RH  077%=      5-min Rain = 0
KST2 140618Z 15010KT 09/05 A3026 RMK A01 T00890051  RH  077%=      5-min Rain = 0
KST2 140619Z 15011KT 09/05 A3025 RMK A01 T00890052  RH  078%=      5-min Rain = 0
KST2 140620Z 15010KT 09/05 A3025 RMK A01 T00890052  RH  077%=      5-min Rain = 0
KST2 140621Z 15010KT 09/05 A3025 RMK A01 T00890052  RH  077%=      5-min Rain = 0
KST2 140622Z 15010KT 09/05 A3025 RMK A01 T00890052  RH  078%=      5-min Rain = 0
KST2 140623Z 15011KT 09/05 A3025 RMK A01 T00900053  RH  077%=      5-min Rain = 0
KST2 140624Z 16011KT 09/05 A3025 RMK A01 T00900053  RH  078%=      5-min Rain = 0
KST2 140625Z 16010KT 09/05 A3025 RMK A01 T00900053  RH  078%=      5-min Rain = 0
KST2 140626Z 16010KT 09/05 A3025 RMK A01 T00910054  RH  078%=      5-min Rain = 0
KST2 140627Z 16010KT 09/05 A3025 RMK A01 T00910054  RH  078%=      5-min Rain = 0
KST2 140628Z 16010KT 09/05 A3025 RMK A01 T00910054  RH  078%=      5-min Rain = 0
KST2 140629Z 16010KT 09/05 A3025 RMK A01 T00910054  RH  078%=      5-min Rain = 0
KST2 140630Z 16010KT 09/05 A3025 RMK A01 T00910054  RH  077%=      5-min Rain = 0
KST2 140631Z 16011KT 09/05 A3025 RMK A01 T00910053  RH  077%=      5-min Rain = 0
KST2 140632Z 16011KT 09/05 A3025 RMK A01 T00910054  RH  078%=      5-min Rain = 0
KST2 140633Z 16011KT 09/06 A3025 RMK A01 T00920055  RH  078%=      5-min Rain = 0
KST2 140634Z 16011KT 09/06 A3025 RMK A01 T00920055  RH  078%=      5-min Rain = 0
KST2 140635Z 16011KT 09/06 A3025 RMK A01 T00930055  RH  078%=      5-min Rain = 0
KST2 140636Z 16011KT 09/06 A3025 RMK A01 T00930055  RH  077%=      5-min Rain = 0
KST2 140637Z 16010KT 09/06 A3025 RMK A01 T00930056  RH  077%=      5-min Rain = 0
KST2 140638Z 16009KT 09/06 A3025 RMK A01 T00940056  RH  077%=      5-min Rain = 0
KST2 140639Z 16010KT 09/06 A3026 RMK A01 T00940057  RH  077%=      5-min Rain = 0
KST2 140640Z 16009KT 10/06 A3026 RMK A01 T00950058  RH  077%=      5-min Rain = 0
KST2 140641Z 17009KT 10/06 A3026 RMK A01 T00960058  RH  077%=      5-min Rain = 0
KST2 140642Z 17010KT 10/06 A3026 RMK A01 T00970058  RH  077%=      5-min Rain = 0
KST2 140643Z 17010KT 10/06 A3026 RMK A01 T00970059  RH  077%=      5-min Rain = 0
KST2 140644Z 16010KT 10/06 A3026 RMK A01 T00980059  RH  077%=      5-min Rain = 0
KST2 140645Z 16010KT 10/06 A3026 RMK A01 T00990060  RH  077%=      5-min Rain = 0
KST2 140646Z 16010KT 10/06 A3025 RMK A01 T00990060  RH  077%=      5-min Rain = 0
KST2 140647Z 16011KT 10/06 A3025 RMK A01 T01000061  RH  077%=      5-min Rain = 0
KST2 140648Z 17010KT 10/06 A3025 RMK A01 T01010062  RH  077%=      5-min Rain = 0
KST2 140649Z 16010KT 10/06 A3025 RMK A01 T01020062  RH  076%=      5-min Rain = 0
KST2 140650Z 16010KT 10/06 A3025 RMK A01 T01030063  RH  076%=      5-min Rain = 0
KST2 140651Z 16010KT 10/06 A3025 RMK A01 T01030063  RH  076%=      5-min Rain = 0
KST2 140652Z 16009KT 10/06 A3025 RMK A01 T01040063  RH  076%=      5-min Rain = 0
KST2 140653Z 16010KT 10/06 A3025 RMK A01 T01040063  RH  076%=      5-min Rain = 0
KST2 140654Z 16009KT 10/06 A3025 RMK A01 T01040063  RH  076%=      5-min Rain = 0
KST2 140655Z 16010KT 10/06 A3025 RMK A01 T01040064  RH  076%=      5-min Rain = 0
KST2 140656Z 16010KT 10/06 A3025 RMK A01 T01040064  RH  076%=      5-min Rain = 0
KST2 140657Z 16010KT 11/06 A3025 RMK A01 T01050064  RH  076%=      5-min Rain = 0
KST2 140658Z 16010KT 11/06 A3024 RMK A01 T01050064  RH  076%=      5-min Rain = 0
KST2 140659Z 17010KT 11/06 A3024 RMK A01 T01050064  RH  076%=      5-min Rain = 0
KST2 140700Z 17010KT 11/07 A3025 RMK A01 T01050065  RH  076%=      5-min Rain = 0
KST2 140701Z 17010KT 11/07 A3025 RMK A01 T01050065  RH  076%=      5-min Rain = 0
KST2 140702Z 17010KT 11/06 A3025 RMK A01 T01050064  RH  076%=      5-min Rain = 0
KST2 140703Z 17010KT 11/07 A3025 RMK A01 T01050065  RH  076%=      5-min Rain = 0
KST2 140704Z 17010KT 11/07 A3025 RMK A01 T01060065  RH  076%=      5-min Rain = 0
KST2 140705Z 17010KT 11/07 A3025 RMK A01 T01060065  RH  076%=      5-min Rain = 0
KST2 140706Z 17010KT 11/07 A3025 RMK A01 T01060065  RH  076%=      5-min Rain = 0
KST2 140707Z 17010KT 11/07 A3025 RMK A01 T01060065  RH  076%=      5-min Rain = 0
KST2 140708Z 17009KT 11/07 A3025 RMK A01 T01060065  RH  076%=      5-min Rain = 0
KST2 140709Z 17009KT 11/07 A3025 RMK A01 T01060065  RH  076%=      5-min Rain = 0
KST2 140710Z 17010KT 11/07 A3025 RMK A01 T01060065  RH  076%=      5-min Rain = 0
KST2 140711Z 17009KT 11/07 A3025 RMK A01 T01060065  RH  076%=      5-min Rain = 0
KST2 140712Z 17009KT 11/07 A3025 RMK A01 T01060065  RH  076%=      5-min Rain = 0
KST2 140713Z 17009KT 11/07 A3025 RMK A01 T01060066  RH  076%=      5-min Rain = 0
KST2 140714Z 16009KT 11/07 A3025 RMK A01 T01060066  RH  076%=      5-min Rain = 0
KST2 140715Z 16009KT 11/07 A3025 RMK A01 T01060065  RH  076%=      5-min Rain = 0
KST2 140716Z 16009KT 11/07 A3025 RMK A01 T01060065  RH  076%=      5-min Rain = 0
KST2 140717Z 16009KT 11/07 A3025 RMK A01 T01070066  RH  076%=      5-min Rain = 0
KST2 140718Z 16009KT 11/07 A3025 RMK A01 T01070066  RH  076%=      5-min Rain = 0
KST2 140719Z 16008KT 11/07 A3025 RMK A01 T01070066  RH  076%=      5-min Rain = 0
KST2 140720Z 16008KT 11/07 A3025 RMK A01 T01070066  RH  076%=      5-min Rain = 0
KST2 140721Z 16009KT 11/07 A3025 RMK A01 T01070066  RH  076%=      5-min Rain = 0
KST2 140722Z 16008KT 11/07 A3025 RMK A01 T01080067  RH  076%=      5-min Rain = 0
KST2 140723Z 16009KT 11/07 A3025 RMK A01 T01080067  RH  076%=      5-min Rain = 0
KST2 140724Z 16008KT 11/07 A3025 RMK A01 T01080067  RH  076%=      5-min Rain = 0
KST2 140725Z 16009KT 11/07 A3024 RMK A01 T01080067  RH  076%=      5-min Rain = 0
KST2 140726Z 16008KT 11/07 A3024 RMK A01 T01080067  RH  076%=      5-min Rain = 0
KST2 140727Z 16008KT 11/07 A3024 RMK A01 T01090068  RH  076%=      5-min Rain = 0
KST2 140728Z 16008KT 11/07 A3024 RMK A01 T01090068  RH  076%=      5-min Rain = 0
KST2 140729Z 16008KT 11/07 A3024 RMK A01 T01090068  RH  076%=      5-min Rain = 0
KST2 140730Z 16008KT 11/07 A3024 RMK A01 T01090068  RH  076%=      5-min Rain = 0
KST2 140731Z 16008KT 11/07 A3024 RMK A01 T01090068  RH  076%=      5-min Rain = 0
KST2 140732Z 16008KT 11/07 A3024 RMK A01 T01090068  RH  076%=      5-min Rain = 0
KST2 140733Z 16008KT 11/07 A3024 RMK A01 T01090068  RH  076%=      5-min Rain = 0
KST2 140734Z 16007KT 11/07 A3024 RMK A01 T01090068  RH  076%=      5-min Rain = 0
KST2 140735Z 16007KT 11/07 A3024 RMK A01 T01080068  RH  076%=      5-min Rain = 0
KST2 140736Z 17007KT 11/07 A3024 RMK A01 T01090068  RH  076%=      5-min Rain = 0
KST2 140737Z 17007KT 11/07 A3024 RMK A01 T01090068  RH  076%=      5-min Rain = 0
KST2 140738Z 17007KT 11/07 A3024 RMK A01 T01090068  RH  076%=      5-min Rain = 0
KST2 140739Z 16006KT 11/07 A3024 RMK A01 T01080068  RH  076%=      5-min Rain = 0
KST2 140740Z 17006KT 11/07 A3024 RMK A01 T01090068  RH  076%=      5-min Rain = 0
KST2 140741Z 17006KT 11/07 A3024 RMK A01 T01080068  RH  076%=      5-min Rain = 0
KST2 140742Z 17006KT 11/07 A3024 RMK A01 T01080068  RH  076%=      5-min Rain = 0
KST2 140743Z 16006KT 11/07 A3024 RMK A01 T01080068  RH  076%=      5-min Rain = 0
KST2 140744Z 16007KT 11/07 A3024 RMK A01 T01080068  RH  076%=      5-min Rain = 0
KST2 140745Z 16006KT 11/07 A3024 RMK A01 T01080068  RH  076%=      5-min Rain = 0
KST2 140746Z 16006KT 11/07 A3024 RMK A01 T01080068  RH  076%=      5-min Rain = 0
KST2 140747Z 16006KT 11/07 A3024 RMK A01 T01080068  RH  076%=      5-min Rain = 0
KST2 140748Z 16006KT 11/07 A3024 RMK A01 T01090068  RH  076%=      5-min Rain = 0
KST2 140749Z 16006KT 11/07 A3024 RMK A01 T01080068  RH  076%=      5-min Rain = 0
KST2 140750Z 16006KT 11/07 A3024 RMK A01 T01080068  RH  076%=      5-min Rain = 0
KST2 140751Z 16006KT 11/07 A3024 RMK A01 T01080068  RH  076%=      5-min Rain = 0
KST2 140752Z 16006KT 11/07 A3024 RMK A01 T01080068  RH  076%=      5-min Rain = 0
KST2 140753Z 16006KT 11/07 A3024 RMK A01 T01090068  RH  076%=      5-min Rain = 0
KST2 140754Z 16006KT 11/07 A3024 RMK A01 T01090068  RH  076%=      5-min Rain = 0
KST2 140755Z 16006KT 11/07 A3024 RMK A01 T01080068  RH  076%=      5-min Rain = 0
KST2 140756Z 16006KT 11/07 A3024 RMK A01 T01080068  RH  076%=      5-min Rain = 0
KST2 140757Z 16006KT 11/07 A3023 RMK A01 T01080068  RH  076%=      5-min Rain = 0
KST2 140758Z 16006KT 11/07 A3023 RMK A01 T01070068  RH  076%=      5-min Rain = 0
KST2 140759Z 16006KT 11/07 A3024 RMK A01 T01070067  RH  076%=      5-min Rain = 0
KST2 140800Z 16006KT 11/07 A3024 RMK A01 T01070067  RH  077%=      5-min Rain = 0
KST2 140801Z 16006KT 11/07 A3024 RMK A01 T01070068  RH  077%=      5-min Rain = 0
KST2 140802Z 16006KT 11/07 A3024 RMK A01 T01070068  RH  077%=      5-min Rain = 0
KST2 140803Z 16006KT 11/07 A3024 RMK A01 T01070068  RH  077%=      5-min Rain = 0
KST2 140804Z 16006KT 11/07 A3023 RMK A01 T01070068  RH  077%=      5-min Rain = 0
KST2 140805Z 17006KT 11/07 A3023 RMK A01 T01060068  RH  077%=      5-min Rain = 0
KST2 140806Z 17006KT 11/07 A3024 RMK A01 T01060068  RH  077%=      5-min Rain = 0
KST2 140807Z 17006KT 11/07 A3024 RMK A01 T01060067  RH  077%=      5-min Rain = 0
KST2 140808Z 17005KT 11/07 A3024 RMK A01 T01060067  RH  077%=      5-min Rain = 0
KST2 140809Z 17005KT 11/07 A3024 RMK A01 T01060067  RH  077%=      5-min Rain = 0
KST2 140810Z 17005KT 11/07 A3024 RMK A01 T01050067  RH  077%=      5-min Rain = 0
KST2 140811Z 17005KT 11/07 A3024 RMK A01 T01050067  RH  077%=      5-min Rain = 0
KST2 140812Z 17005KT 11/07 A3024 RMK A01 T01050067  RH  077%=      5-min Rain = 0
KST2 140813Z 17006KT 10/07 A3024 RMK A01 T01040067  RH  077%=      5-min Rain = 0
KST2 140814Z 16006KT 10/07 A3024 RMK A01 T01040066  RH  077%=      5-min Rain = 0
KST2 140815Z 16006KT 10/07 A3024 RMK A01 T01040066  RH  078%=      5-min Rain = 0
KST2 140816Z 16006KT 10/07 A3024 RMK A01 T01040066  RH  078%=      5-min Rain = 0
KST2 140817Z 16005KT 10/07 A3024 RMK A01 T01030066  RH  078%=      5-min Rain = 0
KST2 140818Z 16005KT 10/07 A3024 RMK A01 T01030066  RH  078%=      5-min Rain = 0
KST2 140819Z 16005KT 10/07 A3024 RMK A01 T01030066  RH  078%=      5-min Rain = 0
KST2 140820Z 16005KT 10/07 A3024 RMK A01 T01030066  RH  078%=      5-min Rain = 0
KST2 140821Z 16005KT 10/07 A3024 RMK A01 T01030066  RH  078%=      5-min Rain = 0
KST2 140822Z 17006KT 10/07 A3024 RMK A01 T01020066  RH  078%=      5-min Rain = 0
KST2 140823Z 17006KT 10/07 A3024 RMK A01 T01020065  RH  078%=      5-min Rain = 0
KST2 140824Z 17006KT 10/06 A3024 RMK A01 T01010064  RH  078%=      5-min Rain = 0
KST2 140825Z 17007KT 10/06 A3024 RMK A01 T01010064  RH  078%=      5-min Rain = 0
KST2 140826Z 17007KT 10/07 A3024 RMK A01 T01010065  RH  078%=      5-min Rain = 0
KST2 140827Z 17007KT 10/07 A3024 RMK A01 T01010065  RH  078%=      5-min Rain = 0
KST2 140828Z 17007KT 10/06 A3024 RMK A01 T01000064  RH  078%=      5-min Rain = 0
KST2 140829Z 16006KT 10/07 A3024 RMK A01 T01000065  RH  079%=      5-min Rain = 0
KST2 140830Z 16006KT 10/07 A3024 RMK A01 T01000065  RH  078%=      5-min Rain = 0
KST2 140831Z 17006KT 10/06 A3024 RMK A01 T01000064  RH  078%=      5-min Rain = 0
KST2 140832Z 17005KT 10/06 A3024 RMK A01 T01000064  RH  078%=      5-min Rain = 0
KST2 140833Z 17005KT 10/07 A3024 RMK A01 T01000065  RH  079%=      5-min Rain = 0
KST2 140834Z 17005KT 10/07 A3024 RMK A01 T01000065  RH  079%=      5-min Rain = 0
KST2 140835Z 17005KT 10/06 A3024 RMK A01 T01000064  RH  078%=      5-min Rain = 0
KST2 140836Z 17005KT 10/07 A3024 RMK A01 T01010065  RH  078%=      5-min Rain = 0
KST2 140837Z 17005KT 10/06 A3024 RMK A01 T01000064  RH  078%=      5-min Rain = 0
KST2 140838Z 17006KT 10/06 A3024 RMK A01 T00990064  RH  079%=      5-min Rain = 0
KST2 140839Z 17006KT 10/06 A3024 RMK A01 T00990064  RH  079%=      5-min Rain = 0
KST2 140840Z 17006KT 10/06 A3024 RMK A01 T00980064  RH  079%=      5-min Rain = 0
KST2 140841Z 17006KT 10/06 A3024 RMK A01 T00980064  RH  079%=      5-min Rain = 0
KST2 140842Z 17006KT 10/06 A3024 RMK A01 T00980063  RH  079%=      5-min Rain = 0
KST2 140843Z 17006KT 10/06 A3023 RMK A01 T00980063  RH  079%=      5-min Rain = 0
KST2 140844Z 17006KT 10/06 A3023 RMK A01 T00970063  RH  079%=      5-min Rain = 0
KST2 140845Z 17006KT 10/06 A3023 RMK A01 T00970062  RH  079%=      5-min Rain = 0
KST2 140846Z 16006KT 10/06 A3023 RMK A01 T00970063  RH  079%=      5-min Rain = 0
KST2 140847Z 16006KT 10/07 A3023 RMK A01 T00980065  RH  080%=      5-min Rain = 0
KST2 140848Z 16006KT 10/07 A3023 RMK A01 T00980065  RH  080%=      5-min Rain = 0
KST2 140849Z 16005KT 10/07 A3023 RMK A01 T00990065  RH  079%=      5-min Rain = 0
KST2 140850Z 16005KT 10/06 A3023 RMK A01 T00980064  RH  079%=      5-min Rain = 0
KST2 140851Z 16005KT 10/06 A3023 RMK A01 T00980064  RH  079%=      5-min Rain = 0
KST2 140852Z 16005KT 10/06 A3023 RMK A01 T00980064  RH  079%=      5-min Rain = 0
KST2 140853Z 16004KT 10/07 A3023 RMK A01 T00990065  RH  080%=      5-min Rain = 0
KST2 140854Z 16004KT 10/07 A3023 RMK A01 T00990065  RH  080%=      5-min Rain = 0
KST2 140855Z 15004KT 10/07 A3023 RMK A01 T00980065  RH  080%=      5-min Rain = 0
KST2 140856Z 15004KT 10/07 A3023 RMK A01 T00980065  RH  080%=      5-min Rain = 0
KST2 140857Z 16004KT 10/07 A3023 RMK A01 T00980065  RH  080%=      5-min Rain = 0
KST2 140858Z 15004KT 10/07 A3023 RMK A01 T00980065  RH  080%=      5-min Rain = 0
KST2 140859Z 15005KT 10/07 A3023 RMK A01 T00980065  RH  080%=      5-min Rain = 0
KST2 140900Z 15005KT 10/07 A3023 RMK A01 T00980065  RH  080%=      5-min Rain = 0
KST2 140901Z 15005KT 10/07 A3023 RMK A01 T00980067  RH  081%=      5-min Rain = 0
KST2 140902Z 15005KT 10/07 A3023 RMK A01 T00980065  RH  080%=      5-min Rain = 0
KST2 140903Z 15006KT 10/06 A3023 RMK A01 T00970062  RH  079%=      5-min Rain = 0
KST2 140904Z 16006KT 10/06 A3023 RMK A01 T00960064  RH  081%=      5-min Rain = 0
KST2 140905Z 15006KT 10/07 A3023 RMK A01 T00960065  RH  081%=      5-min Rain = 0
KST2 140906Z 15005KT 10/06 A3023 RMK A01 T00960063  RH  080%=      5-min Rain = 0
KST2 140907Z 15005KT 09/06 A3023 RMK A01 T00940060  RH  079%=      5-min Rain = 0
KST2 140908Z 15005KT 09/06 A3023 RMK A01 T00930059  RH  079%=      5-min Rain = 0
KST2 140909Z 15004KT 09/06 A3023 RMK A01 T00920059  RH  080%=      5-min Rain = 0
KST2 140910Z 16004KT 09/06 A3023 RMK A01 T00910060  RH  081%=      5-min Rain = 0
KST2 140911Z 16003KT 09/06 A3023 RMK A01 T00920062  RH  081%=      5-min Rain = 0
KST2 140912Z 16002KT 09/06 A3023 RMK A01 T00920062  RH  081%=      5-min Rain = 0
KST2 140913Z 16002KT 09/06 A3023 RMK A01 T00920062  RH  081%=      5-min Rain = 0
KST2 140914Z 16001KT 09/06 A3023 RMK A01 T00920061  RH  081%=      5-min Rain = 0
KST2 140915Z 16002KT 09/06 A3023 RMK A01 T00920063  RH  082%=      5-min Rain = 0
KST2 140916Z 16002KT 09/07 A3023 RMK A01 T00920065  RH  083%=      5-min Rain = 0
KST2 140917Z 16002KT 09/07 A3023 RMK A01 T00930065  RH  083%=      5-min Rain = 0
KST2 140918Z 16003KT 09/07 A3023 RMK A01 T00930067  RH  083%=      5-min Rain = 0
KST2 140919Z 17003KT 09/07 A3023 RMK A01 T00940067  RH  083%=      5-min Rain = 0
KST2 140920Z 17004KT 10/07 A3023 RMK A01 T00950066  RH  082%=      5-min Rain = 0
KST2 140921Z 17005KT 10/07 A3023 RMK A01 T00950068  RH  083%=      5-min Rain = 0
KST2 140922Z 17005KT 10/07 A3023 RMK A01 T00960067  RH  083%=      5-min Rain = 0
KST2 140923Z 17005KT 10/07 A3023 RMK A01 T00960066  RH  082%=      5-min Rain = 0
KST2 140924Z 17006KT 10/07 A3023 RMK A01 T00950065  RH  081%=      5-min Rain = 0
KST2 140925Z 17006KT 09/06 A3023 RMK A01 T00940064  RH  081%=      5-min Rain = 0
KST2 140926Z 17005KT 09/07 A3023 RMK A01 T00940065  RH  082%=      5-min Rain = 0
KST2 140927Z 17006KT 09/06 A3023 RMK A01 T00930063  RH  082%=      5-min Rain = 0
KST2 140928Z 17006KT 09/06 A3022 RMK A01 T00920064  RH  082%=      5-min Rain = 0
KST2 140929Z 16007KT 09/06 A3022 RMK A01 T00910061  RH  082%=      5-min Rain = 0
KST2 140930Z 17007KT 09/06 A3022 RMK A01 T00900061  RH  082%=      5-min Rain = 0
KST2 140931Z 17007KT 09/06 A3022 RMK A01 T00900063  RH  083%=      5-min Rain = 0
KST2 140932Z 17007KT 09/06 A3022 RMK A01 T00900061  RH  083%=      5-min Rain = 0
KST2 140933Z 17008KT 09/06 A3022 RMK A01 T00890061  RH  082%=      5-min Rain = 0
KST2 140934Z 17007KT 09/06 A3022 RMK A01 T00890060  RH  082%=      5-min Rain = 0
KST2 140935Z 17007KT 09/06 A3022 RMK A01 T00880060  RH  083%=      5-min Rain = 0
KST2 140936Z 17007KT 09/06 A3022 RMK A01 T00890063  RH  084%=      5-min Rain = 0
KST2 140937Z 17007KT 09/06 A3022 RMK A01 T00890063  RH  084%=      5-min Rain = 0
KST2 140938Z 17007KT 09/06 A3022 RMK A01 T00900064  RH  084%=      5-min Rain = 0
KST2 140939Z 17007KT 09/06 A3022 RMK A01 T00910063  RH  083%=      5-min Rain = 0
KST2 140940Z 17007KT 09/06 A3022 RMK A01 T00910063  RH  083%=      5-min Rain = 0
KST2 140941Z 16007KT 09/06 A3022 RMK A01 T00900063  RH  083%=      5-min Rain = 0
KST2 140942Z 17007KT 09/06 A3022 RMK A01 T00900060  RH  082%=      5-min Rain = 0
KST2 140943Z 16006KT 09/06 A3022 RMK A01 T00890062  RH  083%=      5-min Rain = 0
KST2 140944Z 17006KT 09/06 A3021 RMK A01 T00890061  RH  083%=      5-min Rain = 0
KST2 140945Z 17007KT 09/06 A3021 RMK A01 T00890061  RH  083%=      5-min Rain = 0
KST2 140946Z 16006KT 09/07 A3021 RMK A01 T00890065  RH  085%=      5-min Rain = 0
KST2 140947Z 16006KT 09/07 A3021 RMK A01 T00910065  RH  084%=      5-min Rain = 0
KST2 140948Z 16006KT 09/06 A3021 RMK A01 T00910063  RH  083%=      5-min Rain = 0
KST2 140949Z 17007KT 09/06 A3021 RMK A01 T00900063  RH  083%=      5-min Rain = 0
KST2 140950Z 16006KT 09/07 A3021 RMK A01 T00900066  RH  085%=      5-min Rain = 0
KST2 140951Z 16006KT 09/07 A3021 RMK A01 T00920067  RH  085%=      5-min Rain = 0
KST2 140952Z 16007KT 09/07 A3021 RMK A01 T00920066  RH  084%=      5-min Rain = 0
KST2 140953Z 16006KT 09/07 A3021 RMK A01 T00920066  RH  083%=      5-min Rain = 0
KST2 140954Z 15006KT 09/07 A3021 RMK A01 T00920065  RH  083%=      5-min Rain = 0
KST2 140955Z 15005KT 09/06 A3021 RMK A01 T00910064  RH  083%=      5-min Rain = 0
KST2 140956Z 14006KT 09/07 A3021 RMK A01 T00910066  RH  084%=      5-min Rain = 0
KST2 140957Z 14005KT 09/06 A3021 RMK A01 T00910064  RH  083%=      5-min Rain = 0
KST2 140958Z 14005KT 09/06 A3021 RMK A01 T00900062  RH  083%=      5-min Rain = 0
KST2 140959Z 15005KT 09/06 A3021 RMK A01 T00890061  RH  083%=      5-min Rain = 0
KST2 141000Z 15006KT 09/06 A3021 RMK A01 T00880059  RH  082%=      5-min Rain = 0
KST2 141001Z 15006KT 09/06 A3021 RMK A01 T00860058  RH  082%=      5-min Rain = 0
KST2 141002Z 15006KT 09/06 A3021 RMK A01 T00850056  RH  082%=      5-min Rain = 0
KST2 141003Z 15006KT 08/05 A3021 RMK A01 T00840054  RH  082%=      5-min Rain = 0
KST2 141004Z 15006KT 08/06 A3021 RMK A01 T00830055  RH  083%=      5-min Rain = 0
KST2 141005Z 16006KT 08/06 A3021 RMK A01 T00820055  RH  083%=      5-min Rain = 0
KST2 141006Z 16006KT 08/06 A3021 RMK A01 T00820055  RH  083%=      5-min Rain = 0
KST2 141007Z 15006KT 08/05 A3021 RMK A01 T00810054  RH  083%=      5-min Rain = 0
KST2 141008Z 15006KT 08/05 A3021 RMK A01 T00810054  RH  083%=      5-min Rain = 0
KST2 141009Z 15006KT 08/05 A3021 RMK A01 T00800053  RH  083%=      5-min Rain = 0
KST2 141010Z 15006KT 08/05 A3021 RMK A01 T00800054  RH  083%=      5-min Rain = 0
KST2 141011Z 16005KT 08/05 A3021 RMK A01 T00800054  RH  084%=      5-min Rain = 0
KST2 141012Z 16005KT 08/05 A3021 RMK A01 T00800054  RH  084%=      5-min Rain = 0
KST2 141013Z 15005KT 08/05 A3021 RMK A01 T00800054  RH  084%=      5-min Rain = 0
KST2 141014Z 15005KT 08/05 A3021 RMK A01 T00800054  RH  084%=      5-min Rain = 0
KST2 141015Z 15005KT 08/05 A3021 RMK A01 T00800054  RH  083%=      5-min Rain = 0
KST2 141016Z 15004KT 08/05 A3021 RMK A01 T00800054  RH  084%=      5-min Rain = 0
KST2 141017Z 15004KT 08/05 A3021 RMK A01 T00800054  RH  084%=      5-min Rain = 0
KST2 141018Z 15004KT 08/06 A3021 RMK A01 T00800055  RH  084%=      5-min Rain = 0
KST2 141019Z 15004KT 08/06 A3021 RMK A01 T00800056  RH  085%=      5-min Rain = 0
KST2 141020Z 16004KT 08/06 A3021 RMK A01 T00800057  RH  085%=      5-min Rain = 0
KST2 141021Z 16004KT 08/06 A3021 RMK A01 T00810059  RH  086%=      5-min Rain = 0
KST2 141022Z 16004KT 08/06 A3021 RMK A01 T00820061  RH  087%=      5-min Rain = 0
KST2 141023Z 16004KT 08/06 A3021 RMK A01 T00830063  RH  087%=      5-min Rain = 0
KST2 141024Z 16004KT 09/07 A3021 RMK A01 T00850065  RH  087%=      5-min Rain = 0
KST2 141025Z 17005KT 09/07 A3021 RMK A01 T00860066  RH  087%=      5-min Rain = 0
KST2 141026Z 17005KT 09/07 A3021 RMK A01 T00870067  RH  087%=      5-min Rain = 0
KST2 141027Z 17005KT 09/07 A3021 RMK A01 T00880066  RH  086%=      5-min Rain = 0
KST2 141028Z 16004KT 09/07 A3021 RMK A01 T00880065  RH  086%=      5-min Rain = 0
KST2 141029Z 16005KT 09/07 A3021 RMK A01 T00880067  RH  087%=      5-min Rain = 0
KST2 141030Z 16005KT 09/07 A3021 RMK A01 T00890068  RH  087%=      5-min Rain = 0
KST2 141031Z 16005KT 09/07 A3021 RMK A01 T00890068  RH  087%=      5-min Rain = 0
KST2 141032Z 16004KT 09/07 A3021 RMK A01 T00890067  RH  086%=      5-min Rain = 0
KST2 141033Z 15004KT 09/07 A3021 RMK A01 T00890066  RH  085%=      5-min Rain = 0
KST2 141034Z 15004KT 09/07 A3021 RMK A01 T00880065  RH  085%=      5-min Rain = 0
KST2 141035Z 15004KT 09/07 A3021 RMK A01 T00880065  RH  086%=      5-min Rain = 0
KST2 141036Z 15004KT 09/07 A3021 RMK A01 T00870066  RH  086%=      5-min Rain = 0
KST2 141037Z 15004KT 09/07 A3021 RMK A01 T00870066  RH  087%=      5-min Rain = 0
KST2 141038Z 15003KT 09/07 A3021 RMK A01 T00880068  RH  087%=      5-min Rain = 0
KST2 141039Z 14003KT 09/07 A3021 RMK A01 T00880068  RH  087%=      5-min Rain = 0
KST2 141040Z 14003KT 09/07 A3021 RMK A01 T00880067  RH  087%=      5-min Rain = 0
KST2 141041Z 15003KT 09/07 A3021 RMK A01 T00870066  RH  086%=      5-min Rain = 0
KST2 141042Z 15003KT 09/07 A3021 RMK A01 T00870065  RH  086%=      5-min Rain = 0
KST2 141043Z 15003KT 09/07 A3021 RMK A01 T00870065  RH  086%=      5-min Rain = 0
KST2 141044Z 15002KT 09/07 A3021 RMK A01 T00870065  RH  087%=      5-min Rain = 0
KST2 141045Z 15002KT 09/07 A3021 RMK A01 T00860066  RH  087%=      5-min Rain = 0
KST2 141046Z 15002KT 09/07 A3021 RMK A01 T00860066  RH  087%=      5-min Rain = 0
KST2 141047Z 15002KT 09/07 A3021 RMK A01 T00870068  RH  088%=      5-min Rain = 0
KST2 141048Z 16002KT 09/07 A3021 RMK A01 T00870068  RH  088%=      5-min Rain = 0
KST2 141049Z 16002KT 09/07 A3021 RMK A01 T00880069  RH  088%=      5-min Rain = 0
KST2 141050Z 16003KT 09/07 A3021 RMK A01 T00880069  RH  088%=      5-min Rain = 0
KST2 141051Z 15003KT 09/07 A3021 RMK A01 T00880070  RH  088%=      5-min Rain = 0
KST2 141052Z 15002KT 09/07 A3021 RMK A01 T00890070  RH  088%=      5-min Rain = 0
KST2 141053Z 15003KT 09/07 A3021 RMK A01 T00890071  RH  088%=      5-min Rain = 0
KST2 141054Z 15003KT 09/07 A3021 RMK A01 T00890071  RH  088%=      5-min Rain = 0
KST2 141055Z 15003KT 09/07 A3021 RMK A01 T00900071  RH  088%=      5-min Rain = 0
KST2 141056Z 16003KT 09/07 A3021 RMK A01 T00900071  RH  088%=      5-min Rain = 0
KST2 141057Z 16003KT 09/07 A3021 RMK A01 T00900072  RH  089%=      5-min Rain = 0
KST2 141058Z 17003KT 09/07 A3021 RMK A01 T00900073  RH  089%=      5-min Rain = 0
KST2 141059Z 16003KT 09/07 A3022 RMK A01 T00910073  RH  089%=      5-min Rain = 0
KST2 141100Z 16003KT 09/07 A3022 RMK A01 T00910074  RH  089%=      5-min Rain = 0
KST2 141101Z 17003KT 09/07 A3022 RMK A01 T00910073  RH  088%=      5-min Rain = 0
KST2 141102Z 16003KT 09/07 A3022 RMK A01 T00910072  RH  088%=      5-min Rain = 0
KST2 141103Z 16003KT 09/07 A3022 RMK A01 T00900072  RH  088%=      5-min Rain = 0
KST2 141104Z 16004KT 09/07 A3021 RMK A01 T00910073  RH  089%=      5-min Rain = 0
KST2 141105Z 16004KT 09/07 A3021 RMK A01 T00910073  RH  089%=      5-min Rain = 0
KST2 141106Z 16004KT 09/07 A3021 RMK A01 T00910074  RH  089%=      5-min Rain = 0
KST2 141107Z 16004KT 09/07 A3021 RMK A01 T00910073  RH  089%=      5-min Rain = 0
KST2 141108Z 17005KT 09/07 A3021 RMK A01 T00910073  RH  089%=      5-min Rain = 0
KST2 141109Z 17005KT 09/07 A3021 RMK A01 T00900070  RH  087%=      5-min Rain = 0
KST2 141110Z 17004KT 09/07 A3021 RMK A01 T00880067  RH  087%=      5-min Rain = 0
KST2 141111Z 17004KT 09/07 A3021 RMK A01 T00870065  RH  086%=      5-min Rain = 0
KST2 141112Z 17005KT 09/06 A3021 RMK A01 T00860064  RH  086%=      5-min Rain = 0
KST2 141113Z 16005KT 09/06 A3021 RMK A01 T00850063  RH  086%=      5-min Rain = 0
KST2 141114Z 16005KT 08/06 A3021 RMK A01 T00840062  RH  086%=      5-min Rain = 0
KST2 141115Z 16005KT 08/06 A3021 RMK A01 T00830059  RH  085%=      5-min Rain = 0
KST2 141116Z 17005KT 08/06 A3021 RMK A01 T00820058  RH  085%=      5-min Rain = 0
KST2 141117Z 17005KT 08/06 A3021 RMK A01 T00810058  RH  085%=      5-min Rain = 0
KST2 141118Z 17005KT 08/06 A3021 RMK A01 T00810057  RH  085%=      5-min Rain = 0
KST2 141119Z 17005KT 08/06 A3021 RMK A01 T00800056  RH  085%=      5-min Rain = 0
KST2 141120Z 17005KT 08/06 A3021 RMK A01 T00790056  RH  085%=      5-min Rain = 0
KST2 141121Z 17005KT 08/06 A3021 RMK A01 T00790056  RH  085%=      5-min Rain = 0
KST2 141122Z 17005KT 08/06 A3021 RMK A01 T00790056  RH  086%=      5-min Rain = 0
KST2 141123Z 17005KT 08/06 A3021 RMK A01 T00790056  RH  086%=      5-min Rain = 0
KST2 141124Z 17005KT 08/06 A3021 RMK A01 T00790056  RH  086%=      5-min Rain = 0
KST2 141125Z 17005KT 08/06 A3021 RMK A01 T00790057  RH  086%=      5-min Rain = 0
KST2 141126Z 18005KT 08/06 A3021 RMK A01 T00790058  RH  087%=      5-min Rain = 0
KST2 141127Z 17005KT 08/06 A302 RMK A01 T00790058  RH  087%=      5-min Rain = 0
KST2 141128Z 17005KT 08/06 A302 RMK A01 T00790059  RH  087%=      5-min Rain = 0
KST2 141129Z 17005KT 08/06 A302 RMK A01 T00800060  RH  088%=      5-min Rain = 0
KST2 141130Z 17005KT 08/06 A3021 RMK A01 T00800061  RH  088%=      5-min Rain = 0
KST2 141131Z 17005KT 08/06 A3021 RMK A01 T00810061  RH  087%=      5-min Rain = 0
KST2 141132Z 17005KT 08/06 A3021 RMK A01 T00800061  RH  087%=      5-min Rain = 0
KST2 141133Z 17005KT 08/06 A3021 RMK A01 T00800060  RH  087%=      5-min Rain = 0
KST2 141134Z 17005KT 08/06 A3021 RMK A01 T00810059  RH  086%=      5-min Rain = 0
KST2 141135Z 17004KT 08/06 A3021 RMK A01 T00800058  RH  086%=      5-min Rain = 0
KST2 141136Z 17004KT 08/06 A3021 RMK A01 T00790056  RH  085%=      5-min Rain = 0
KST2 141137Z 17003KT 08/06 A3021 RMK A01 T00790056  RH  085%=      5-min Rain = 0
KST2 141138Z 17003KT 08/05 A3021 RMK A01 T00790054  RH  085%=      5-min Rain = 0
KST2 141139Z 17003KT 08/05 A3021 RMK A01 T00780054  RH  085%=      5-min Rain = 0
KST2 141140Z 17003KT 08/06 A3021 RMK A01 T00780055  RH  086%=      5-min Rain = 0
KST2 141141Z 17003KT 08/06 A3021 RMK A01 T00780056  RH  086%=      5-min Rain = 0
KST2 141142Z 17003KT 08/06 A3021 RMK A01 T00780057  RH  087%=      5-min Rain = 0
KST2 141143Z 18003KT 08/06 A3021 RMK A01 T00780058  RH  087%=      5-min Rain = 0
KST2 141144Z 18003KT 08/06 A3021 RMK A01 T00780059  RH  087%=      5-min Rain = 0
KST2 141145Z 18003KT 08/06 A3022 RMK A01 T00790059  RH  088%=      5-min Rain = 0
KST2 141146Z 18003KT 08/06 A3021 RMK A01 T00790062  RH  089%=      5-min Rain = 0
KST2 141147Z 18003KT 08/06 A3021 RMK A01 T00800063  RH  089%=      5-min Rain = 0
KST2 141148Z 18003KT 08/06 A3021 RMK A01 T00800063  RH  089%=      5-min Rain = 0
KST2 141149Z 18003KT 08/06 A3021 RMK A01 T00810064  RH  089%=      5-min Rain = 0
KST2 141150Z 18003KT 08/07 A3021 RMK A01 T00810065  RH  089%=      5-min Rain = 0
KST2 141151Z 18003KT 08/06 A3021 RMK A01 T00810064  RH  089%=      5-min Rain = 0
KST2 141152Z 18004KT 08/07 A3021 RMK A01 T00820066  RH  090%=      5-min Rain = 0
KST2 141153Z 18004KT 08/07 A3021 RMK A01 T00830068  RH  090%=      5-min Rain = 0
KST2 141154Z 18003KT 08/07 A3021 RMK A01 T00840070  RH  091%=      5-min Rain = 0
KST2 141155Z 19004KT 09/07 A3021 RMK A01 T00850071  RH  091%=      5-min Rain = 0
KST2 141156Z 19004KT 09/07 A3021 RMK A01 T00850071  RH  091%=      5-min Rain = 0
KST2 141157Z 19004KT 09/07 A3021 RMK A01 T00860072  RH  091%=      5-min Rain = 0
KST2 141158Z 18004KT 09/07 A3021 RMK A01 T00860073  RH  091%=      5-min Rain = 0
KST2 141159Z 18003KT 09/07 A3021 RMK A01 T00870073  RH  091%=      5-min Rain = 0
KST2 141200Z 18003KT 09/07 A3021 RMK A01 T00870073  RH  091%=      5-min Rain = 0
KST2 141201Z 18003KT 09/07 A3021 RMK A01 T00870074  RH  091%=      5-min Rain = 0
KST2 141202Z 18003KT 09/07 A3021 RMK A01 T00880074  RH  091%=      5-min Rain = 0
KST2 141203Z 18003KT 09/07 A3021 RMK A01 T00880074  RH  091%=      5-min Rain = 0
KST2 141204Z 18003KT 09/07 A3021 RMK A01 T00880074  RH  091%=      5-min Rain = 0
KST2 141205Z 18003KT 09/07 A3021 RMK A01 T00880074  RH  091%=      5-min Rain = 0
KST2 141206Z 18003KT 09/07 A3021 RMK A01 T00880073  RH  091%=      5-min Rain = 0
KST2 141207Z 19003KT 09/07 A3021 RMK A01 T00870073  RH  091%=      5-min Rain = 0
KST2 141208Z 19003KT 09/07 A3021 RMK A01 T00870074  RH  091%=      5-min Rain = 0
KST2 141209Z 19003KT 09/07 A3021 RMK A01 T00870073  RH  091%=      5-min Rain = 0
KST2 141210Z 19002KT 09/07 A3021 RMK A01 T00870074  RH  091%=      5-min Rain = 0
KST2 141211Z 19002KT 09/07 A3021 RMK A01 T00860073  RH  091%=      5-min Rain = 0
KST2 141212Z 19002KT 09/07 A3021 RMK A01 T00860073  RH  091%=      5-min Rain = 0
KST2 141213Z 19002KT 09/07 A3021 RMK A01 T00860073  RH  092%=      5-min Rain = 0
KST2 141214Z 19002KT 09/07 A3021 RMK A01 T00850073  RH  092%=      5-min Rain = 0
KST2 141215Z 19002KT 09/07 A3021 RMK A01 T00850073  RH  092%=      5-min Rain = 0
KST2 141216Z 18002KT 08/07 A3021 RMK A01 T00840072  RH  092%=      5-min Rain = 0
KST2 141217Z 19001KT 08/07 A3021 RMK A01 T00840072  RH  092%=      5-min Rain = 0
KST2 141218Z 19001KT 08/07 A3021 RMK A01 T00840072  RH  092%=      5-min Rain = 0
KST2 141219Z 19002KT 08/07 A3021 RMK A01 T00830071  RH  092%=      5-min Rain = 0
KST2 141220Z 18002KT 08/07 A3021 RMK A01 T00830071  RH  092%=      5-min Rain = 0
KST2 141221Z 18002KT 08/07 A3021 RMK A01 T00820071  RH  092%=      5-min Rain = 0
KST2 141222Z 18003KT 08/07 A3021 RMK A01 T00820070  RH  093%=      5-min Rain = 0
KST2 141223Z 19003KT 08/07 A3021 RMK A01 T00810070  RH  093%=      5-min Rain = 0
KST2 141224Z 19003KT 08/07 A3021 RMK A01 T00810070  RH  093%=      5-min Rain = 0
KST2 141225Z 19003KT 08/07 A3021 RMK A01 T00810070  RH  093%=      5-min Rain = 0
KST2 141226Z 19003KT 08/07 A3021 RMK A01 T00810070  RH  093%=      5-min Rain = 0
KST2 141227Z 19003KT 08/07 A3021 RMK A01 T00800070  RH  093%=      5-min Rain = 0
KST2 141228Z 18003KT 08/07 A3021 RMK A01 T00790069  RH  093%=      5-min Rain = 0
KST2 141229Z 19003KT 08/07 A3021 RMK A01 T00780068  RH  093%=      5-min Rain = 0
KST2 141230Z 19003KT 08/07 A3021 RMK A01 T00780068  RH  093%=      5-min Rain = 0
KST2 141231Z 19003KT 08/07 A3021 RMK A01 T00780068  RH  093%=      5-min Rain = 0
KST2 141232Z 19003KT 08/07 A3021 RMK A01 T00770067  RH  094%=      5-min Rain = 0
KST2 141233Z 18002KT 08/07 A3021 RMK A01 T00760067  RH  094%=      5-min Rain = 0
KST2 141234Z 17003KT 08/07 A3021 RMK A01 T00760067  RH  094%=      5-min Rain = 0
KST2 141235Z 17003KT 07/06 A3021 RMK A01 T00740064  RH  093%=      5-min Rain = 0
KST2 141236Z 16003KT 07/06 A3021 RMK A01 T00710060  RH  093%=      5-min Rain = 0
KST2 141237Z 16003KT 07/06 A3021 RMK A01 T00680057  RH  092%=      5-min Rain = 0
KST2 141238Z 16003KT 07/06 A3021 RMK A01 T00670057  RH  093%=      5-min Rain = 0
KST2 141239Z 17003KT 07/06 A3021 RMK A01 T00680060  RH  094%=      5-min Rain = 0
KST2 141240Z 17003KT 07/06 A3021 RMK A01 T00690061  RH  095%=      5-min Rain = 0
KST2 141241Z 17002KT 07/06 A3021 RMK A01 T00690062  RH  095%=      5-min Rain = 0
KST2 141242Z 18002KT 07/06 A3021 RMK A01 T00690060  RH  094%=      5-min Rain = 0
KST2 141243Z 18001KT 07/06 A3021 RMK A01 T00660056  RH  093%=      5-min Rain = 0
KST2 141244Z 18001KT 07/06 A3021 RMK A01 T00650055  RH  093%=      5-min Rain = 0
KST2 141245Z 18001KT 07/06 A3021 RMK A01 T00660058  RH  095%=      5-min Rain = 0
KST2 141246Z 18001KT 07/06 A3021 RMK A01 T00680062  RH  096%=      5-min Rain = 0
KST2 141247Z 18001KT 07/06 A3021 RMK A01 T00670059  RH  095%=      5-min Rain = 0
KST2 141248Z 18001KT 06/06 A3021 RMK A01 T00640055  RH  094%=      5-min Rain = 0
KST2 141249Z 18001KT 06/05 A3021 RMK A01 T00620051  RH  093%=      5-min Rain = 0
KST2 141250Z 18001KT 06/05 A3021 RMK A01 T00590048  RH  093%=      5-min Rain = 0
KST2 141251Z 18001KT 06/05 A3021 RMK A01 T00610053  RH  095%=      5-min Rain = 0
KST2 141252Z 18001KT 06/06 A3021 RMK A01 T00640058  RH  096%=      5-min Rain = 0
KST2 141253Z 18001KT 07/06 A3021 RMK A01 T00670062  RH  097%=      5-min Rain = 0
KST2 141254Z 18001KT 07/06 A3021 RMK A01 T00690064  RH  097%=      5-min Rain = 0
KST2 141255Z 18002KT 07/07 A3021 RMK A01 T00700065  RH  097%=      5-min Rain = 0
KST2 141256Z 18002KT 07/07 A3021 RMK A01 T00700066  RH  097%=      5-min Rain = 0
KST2 141257Z 18002KT 07/07 A3021 RMK A01 T00700066  RH  097%=      5-min Rain = 0
KST2 141258Z 18002KT 07/07 A3021 RMK A01 T00710067  RH  097%=      5-min Rain = 0
KST2 141259Z 17002KT 07/07 A3021 RMK A01 T00710067  RH  097%=      5-min Rain = 0
KST2 141300Z 17002KT 07/07 A3021 RMK A01 T00710067  RH  097%=      5-min Rain = 0
KST2 141301Z 17002KT 07/07 A3021 RMK A01 T00710067  RH  097%=      5-min Rain = 0
KST2 141302Z 17002KT 07/07 A3021 RMK A01 T00710067  RH  097%=      5-min Rain = 0
KST2 141303Z 17002KT 07/07 A3021 RMK A01 T00710067  RH  097%=      5-min Rain = 0
KST2 141304Z 17002KT 07/07 A3021 RMK A01 T00710066  RH  097%=      5-min Rain = 0
KST2 141305Z 17003KT 07/07 A3021 RMK A01 T00710067  RH  097%=      5-min Rain = 0
KST2 141306Z 17003KT 07/07 A3021 RMK A01 T00710067  RH  097%=      5-min Rain = 0
KST2 141307Z 16003KT 07/07 A3021 RMK A01 T00710067  RH  097%=      5-min Rain = 0
KST2 141308Z 16003KT 07/07 A3021 RMK A01 T00710067  RH  097%=      5-min Rain = 0
KST2 141309Z 16004KT 07/07 A3021 RMK A01 T00710067  RH  097%=      5-min Rain = 0
KST2 141310Z 16004KT 07/07 A3021 RMK A01 T00700066  RH  097%=      5-min Rain = 0
KST2 141311Z 17004KT 07/07 A3021 RMK A01 T00710067  RH  098%=      5-min Rain = 0
KST2 141312Z 17004KT 07/07 A3021 RMK A01 T00710067  RH  098%=      5-min Rain = 0
KST2 141313Z 17005KT 07/07 A3021 RMK A01 T00710067  RH  098%=      5-min Rain = 0
KST2 141314Z 17005KT 07/07 A3021 RMK A01 T00710067  RH  098%=      5-min Rain = 0
KST2 141315Z 17005KT 07/07 A3021 RMK A01 T00690065  RH  097%=      5-min Rain = 0
KST2 141316Z 18006KT 07/06 A3021 RMK A01 T00660061  RH  097%=      5-min Rain = 0
KST2 141317Z 18006KT 06/06 A3021 RMK A01 T00630057  RH  096%=      5-min Rain = 0
KST2 141318Z 18007KT 06/06 A3021 RMK A01 T00620057  RH  097%=      5-min Rain = 0
KST2 141319Z 18006KT 06/06 A3021 RMK A01 T00610055  RH  096%=      5-min Rain = 0
KST2 141320Z 18006KT 06/05 A3021 RMK A01 T00600054  RH  096%=      5-min Rain = 0
KST2 141321Z 19006KT 06/06 A3021 RMK A01 T00600055  RH  096%=      5-min Rain = 0
KST2 141322Z 19007KT 06/06 A3021 RMK A01 T00600055  RH  096%=      5-min Rain = 0
KST2 141323Z 19007KT 06/06 A3021 RMK A01 T00620056  RH  096%=      5-min Rain = 0
KST2 141324Z 20006KT 06/06 A3021 RMK A01 T00630057  RH  096%=      5-min Rain = 0
KST2 141325Z 20006KT 06/06 A3021 RMK A01 T00640057  RH  096%=      5-min Rain = 0
KST2 141326Z 20006KT 06/06 A3021 RMK A01 T00630056  RH  095%=      5-min Rain = 0
KST2 141327Z 19005KT 06/06 A3021 RMK A01 T00630056  RH  095%=      5-min Rain = 0
KST2 141328Z 19005KT 07/06 A3021 RMK A01 T00650058  RH  096%=      5-min Rain = 0
KST2 141329Z 19005KT 07/06 A3021 RMK A01 T00650057  RH  095%=      5-min Rain = 0
KST2 141330Z 19005KT 06/06 A3021 RMK A01 T00640056  RH  095%=      5-min Rain = 0
KST2 141331Z 19005KT 06/06 A3021 RMK A01 T00640056  RH  095%=      5-min Rain = 0
KST2 141332Z 18004KT 07/06 A302 RMK A01 T00650057  RH  095%=      5-min Rain = 0
KST2 141333Z 18004KT 07/06 A302 RMK A01 T00670060  RH  095%=      5-min Rain = 0
KST2 141334Z 18004KT 07/06 A302 RMK A01 T00680062  RH  096%=      5-min Rain = 0
KST2 141335Z 18005KT 07/06 A3021 RMK A01 T00690063  RH  096%=      5-min Rain = 0
KST2 141336Z 18006KT 07/06 A3021 RMK A01 T00690061  RH  095%=      5-min Rain = 0
KST2 141337Z 19007KT 07/06 A3021 RMK A01 T00680060  RH  095%=      5-min Rain = 0
KST2 141338Z 19006KT 07/06 A3021 RMK A01 T00680060  RH  094%=      5-min Rain = 0
KST2 141339Z 19006KT 07/06 A3021 RMK A01 T00690061  RH  095%=      5-min Rain = 0
KST2 141340Z 20006KT 07/06 A3021 RMK A01 T00690060  RH  094%=      5-min Rain = 0
KST2 141341Z 20006KT 07/06 A3021 RMK A01 T00680060  RH  094%=      5-min Rain = 0
KST2 141342Z 20006KT 07/06 A3021 RMK A01 T00680059  RH  094%=      5-min Rain = 0
KST2 141343Z 20006KT 07/06 A3021 RMK A01 T00680059  RH  094%=      5-min Rain = 0
KST2 141344Z 20006KT 07/06 A3021 RMK A01 T00680059  RH  094%=      5-min Rain = 0
KST2 141345Z 21006KT 07/06 A3021 RMK A01 T00680059  RH  094%=      5-min Rain = 0
KST2 141346Z 21006KT 07/06 A3021 RMK A01 T00670058  RH  094%=      5-min Rain = 0
KST2 141347Z 20006KT 07/06 A3021 RMK A01 T00680060  RH  095%=      5-min Rain = 0
KST2 141348Z 20007KT 07/06 A3021 RMK A01 T00690061  RH  095%=      5-min Rain = 0
KST2 141349Z 19007KT 07/06 A3021 RMK A01 T00680060  RH  094%=      5-min Rain = 0
KST2 141350Z 19006KT 07/06 A302 RMK A01 T00690059  RH  094%=      5-min Rain = 0
KST2 141351Z 18006KT 07/06 A302 RMK A01 T00670056  RH  093%=      5-min Rain = 0
KST2 141352Z 18006KT 07/05 A302 RMK A01 T00660054  RH  092%=      5-min Rain = 0
KST2 141353Z 19006KT 07/06 A302 RMK A01 T00660055  RH  092%=      5-min Rain = 0
KST2 141354Z 19006KT 07/06 A3021 RMK A01 T00670055  RH  093%=      5-min Rain = 0
KST2 141355Z 19006KT 07/06 A3021 RMK A01 T00690059  RH  094%=      5-min Rain = 0
KST2 141356Z 19005KT 07/06 A3021 RMK A01 T00710062  RH  094%=      5-min Rain = 0
KST2 141357Z 19005KT 07/06 A3021 RMK A01 T00720064  RH  094%=      5-min Rain = 0
KST2 141358Z 19005KT 07/06 A3021 RMK A01 T00730063  RH  094%=      5-min Rain = 0
KST2 141359Z 19005KT 07/06 A3021 RMK A01 T00730063  RH  093%=      5-min Rain = 0
KST2 141400Z 19005KT 07/06 A3021 RMK A01 T00730062  RH  093%=      5-min Rain = 0
KST2 141401Z 19005KT 07/06 A3021 RMK A01 T00740063  RH  093%=      5-min Rain = 0
KST2 141402Z 19005KT 08/07 A3021 RMK A01 T00750065  RH  093%=      5-min Rain = 0
KST2 141403Z 20005KT 08/07 A3021 RMK A01 T00760066  RH  093%=      5-min Rain = 0
KST2 141404Z 20005KT 08/07 A3021 RMK A01 T00780067  RH  093%=      5-min Rain = 0
KST2 141405Z 20004KT 08/07 A3021 RMK A01 T00790068  RH  093%=      5-min Rain = 0
KST2 141406Z 20005KT 08/07 A3021 RMK A01 T00790068  RH  093%=      5-min Rain = 0
KST2 141407Z 20004KT 08/07 A3021 RMK A01 T00800069  RH  093%=      5-min Rain = 0
KST2 141408Z 20005KT 08/07 A3021 RMK A01 T00810070  RH  093%=      5-min Rain = 0
KST2 141409Z 20005KT 08/07 A3021 RMK A01 T00820071  RH  093%=      5-min Rain = 0
KST2 141410Z 21005KT 08/07 A3021 RMK A01 T00840073  RH  093%=      5-min Rain = 0
KST2 141411Z 21005KT 09/07 A3021 RMK A01 T00850074  RH  093%=      5-min Rain = 0
KST2 141412Z 21006KT 09/08 A3021 RMK A01 T00870077  RH  093%=      5-min Rain = 0
KST2 141413Z 21005KT 09/08 A3021 RMK A01 T00890079  RH  094%=      5-min Rain = 0
KST2 141414Z 20005KT 09/08 A3021 RMK A01 T00900079  RH  093%=      5-min Rain = 0
KST2 141415Z 20005KT 09/08 A3021 RMK A01 T00910080  RH  093%=      5-min Rain = 0
KST2 141416Z 19005KT 09/08 A3021 RMK A01 T00920081  RH  093%=      5-min Rain = 0
KST2 141417Z 19005KT 09/08 A3021 RMK A01 T00930082  RH  093%=      5-min Rain = 0
KST2 141418Z 19005KT 10/08 A3021 RMK A01 T00950083  RH  093%=      5-min Rain = 0
KST2 141419Z 19006KT 10/08 A3021 RMK A01 T00960084  RH  092%=      5-min Rain = 0
KST2 141420Z 19005KT 10/08 A3021 RMK A01 T00960083  RH  092%=      5-min Rain = 0
KST2 141421Z 19005KT 10/08 A3021 RMK A01 T00970083  RH  091%=      5-min Rain = 0
KST2 141422Z 20006KT 10/08 A3021 RMK A01 T00980084  RH  091%=      5-min Rain = 0
KST2 141423Z 20006KT 10/09 A3022 RMK A01 T00990085  RH  091%=      5-min Rain = 0
KST2 141424Z 20006KT 10/09 A3022 RMK A01 T01010086  RH  091%=      5-min Rain = 0
KST2 141425Z 20006KT 10/09 A3022 RMK A01 T01020088  RH  091%=      5-min Rain = 0
KST2 141426Z 21006KT 10/09 A3021 RMK A01 T01030088  RH  090%=      5-min Rain = 0
KST2 141427Z 20006KT 10/09 A3021 RMK A01 T01030088  RH  090%=      5-min Rain = 0
KST2 141428Z 21006KT 11/09 A3021 RMK A01 T01050089  RH  090%=      5-min Rain = 0
KST2 141429Z 20006KT 11/09 A3021 RMK A01 T01050090  RH  090%=      5-min Rain = 0
KST2 141430Z 20006KT 11/09 A3021 RMK A01 T01070091  RH  090%=      5-min Rain = 0
KST2 141431Z 20007KT 11/09 A3021 RMK A01 T01080093  RH  090%=      5-min Rain = 0
KST2 141432Z 20007KT 11/09 A3021 RMK A01 T01090093  RH  090%=      5-min Rain = 0
KST2 141433Z 20007KT 11/10 A3022 RMK A01 T01100095  RH  090%=      5-min Rain = 0
KST2 141434Z 20007KT 11/10 A3022 RMK A01 T01110095  RH  090%=      5-min Rain = 0
KST2 141435Z 20007KT 11/10 A3022 RMK A01 T01130096  RH  090%=      5-min Rain = 0
KST2 141436Z 20008KT 11/10 A3022 RMK A01 T01140098  RH  089%=      5-min Rain = 0
KST2 141437Z 20008KT 12/10 A3022 RMK A01 T01150098  RH  089%=      5-min Rain = 0
KST2 141438Z 20008KT 12/10 A3022 RMK A01 T01160099  RH  089%=      5-min Rain = 0
KST2 141439Z 19007KT 12/10 A3022 RMK A01 T01170100  RH  089%=      5-min Rain = 0
KST2 141440Z 20007KT 12/10 A3022 RMK A01 T01180100  RH  089%=      5-min Rain = 0
KST2 141441Z 20008KT 12/10 A3022 RMK A01 T01180100  RH  088%=      5-min Rain = 0
KST2 141442Z 20007KT 12/10 A3022 RMK A01 T01190100  RH  088%=      5-min Rain = 0
KST2 141443Z 20006KT 12/10 A3022 RMK A01 T01200101  RH  088%=      5-min Rain = 0
KST2 141444Z 19007KT 12/10 A3022 RMK A01 T01200101  RH  088%=      5-min Rain = 0
KST2 141445Z 20007KT 12/10 A3022 RMK A01 T01210101  RH  088%=      5-min Rain = 0
KST2 141446Z 20006KT 12/10 A3022 RMK A01 T01200100  RH  087%=      5-min Rain = 0
KST2 141447Z 20006KT 12/10 A3022 RMK A01 T01210101  RH  087%=      5-min Rain = 0
KST2 141448Z 20007KT 12/10 A3022 RMK A01 T01210101  RH  087%=      5-min Rain = 0
KST2 141449Z 20006KT 12/10 A3022 RMK A01 T01220101  RH  087%=      5-min Rain = 0
KST2 141450Z 20006KT 12/10 A3022 RMK A01 T01220101  RH  087%=      5-min Rain = 0
KST2 141451Z 20006KT 12/10 A3022 RMK A01 T01230102  RH  087%=      5-min Rain = 0
KST2 141452Z 20005KT 12/10 A3022 RMK A01 T01230101  RH  086%=      5-min Rain = 0
KST2 141453Z 20006KT 12/10 A3022 RMK A01 T01240102  RH  086%=      5-min Rain = 0
KST2 141454Z 20006KT 12/10 A3022 RMK A01 T01240102  RH  086%=      5-min Rain = 0
KST2 141455Z 20006KT 12/10 A3022 RMK A01 T01240102  RH  086%=      5-min Rain = 0
KST2 141456Z 19006KT 13/10 A3022 RMK A01 T01250103  RH  086%=      5-min Rain = 0
KST2 141457Z 20006KT 13/10 A3022 RMK A01 T01250103  RH  086%=      5-min Rain = 0
KST2 141458Z 19006KT 13/10 A3022 RMK A01 T01260103  RH  086%=      5-min Rain = 0
KST2 141459Z 19007KT 13/10 A3022 RMK A01 T01260103  RH  086%=      5-min Rain = 0
KST2 141500Z 20007KT 13/10 A3022 RMK A01 T01260104  RH  086%=      5-min Rain = 0
KST2 141501Z 20007KT 13/10 A3022 RMK A01 T01270104  RH  086%=      5-min Rain = 0
KST2 141502Z 20006KT 13/10 A3022 RMK A01 T01270104  RH  086%=      5-min Rain = 0
KST2 141503Z 20007KT 13/11 A3022 RMK A01 T01280105  RH  086%=      5-min Rain = 0
KST2 141504Z 20007KT 13/11 A3022 RMK A01 T01290105  RH  086%=      5-min Rain = 0
KST2 141505Z 20006KT 13/11 A3022 RMK A01 T01290106  RH  086%=      5-min Rain = 0
KST2 141506Z 20006KT 13/11 A3022 RMK A01 T01300107  RH  086%=      5-min Rain = 0
KST2 141507Z 20007KT 13/11 A3022 RMK A01 T01320107  RH  085%=      5-min Rain = 0
KST2 141508Z 20007KT 13/11 A3022 RMK A01 T01320107  RH  085%=      5-min Rain = 0
KST2 141509Z 20006KT 13/11 A3022 RMK A01 T01330108  RH  085%=      5-min Rain = 0
KST2 141510Z 19007KT 13/11 A3022 RMK A01 T01340108  RH  084%=      5-min Rain = 0
KST2 141511Z 20006KT 13/11 A3022 RMK A01 T01340108  RH  084%=      5-min Rain = 0
KST2 141512Z 19007KT 13/11 A3022 RMK A01 T01340108  RH  085%=      5-min Rain = 0
KST2 141513Z 19006KT 13/11 A3022 RMK A01 T01340108  RH  084%=      5-min Rain = 0
KST2 141514Z 19006KT 14/11 A3021 RMK A01 T01350109  RH  084%=      5-min Rain = 0
KST2 141515Z 19006KT 14/11 A3021 RMK A01 T01350109  RH  084%=      5-min Rain = 0
KST2 141516Z 20005KT 14/11 A3021 RMK A01 T01350109  RH  084%=      5-min Rain = 0
KST2 141517Z 19004KT 14/11 A3021 RMK A01 T01350109  RH  084%=      5-min Rain = 0
KST2 141518Z 18004KT 14/11 A3021 RMK A01 T01370111  RH  084%=      5-min Rain = 0
KST2 141519Z 18005KT 14/11 A3021 RMK A01 T01390111  RH  083%=      5-min Rain = 0
KST2 141520Z 19006KT 14/11 A3021 RMK A01 T01400111  RH  083%=      5-min Rain = 0
KST2 141521Z 19007KT 14/11 A3021 RMK A01 T01400111  RH  083%=      5-min Rain = 0
KST2 141522Z 20006KT 14/11 A3021 RMK A01 T01400111  RH  083%=      5-min Rain = 0
KST2 141523Z 20006KT 14/11 A3021 RMK A01 T01400111  RH  083%=      5-min Rain = 0
KST2 141524Z 21006KT 14/11 A3021 RMK A01 T01400111  RH  083%=      5-min Rain = 0
KST2 141525Z 21006KT 14/11 A3021 RMK A01 T01400112  RH  083%=      5-min Rain = 0
KST2 141526Z 21006KT 14/11 A3021 RMK A01 T01410111  RH  082%=      5-min Rain = 0
KST2 141527Z 20008KT 14/11 A3021 RMK A01 T01410111  RH  082%=      5-min Rain = 0
KST2 141528Z 19009KT 14/11 A3021 RMK A01 T01420112  RH  082%=      5-min Rain = 0
KST2 141529Z 19009KT 14/11 A3021 RMK A01 T01420112  RH  082%=      5-min Rain = 0
KST2 141530Z 20009KT 14/11 A3021 RMK A01 T01430112  RH  082%=      5-min Rain = 0
KST2 141531Z 20009KT 14/11 A3021 RMK A01 T01430112  RH  082%=      5-min Rain = 0
KST2 141532Z 21009KT 14/11 A3021 RMK A01 T01430112  RH  082%=      5-min Rain = 0
KST2 141533Z 21009KT 14/11 A3021 RMK A01 T01420111  RH  082%=      5-min Rain = 0
KST2 141534Z 21009KT 14/11 A3021 RMK A01 T01430112  RH  082%=      5-min Rain = 0
KST2 141535Z 21009KT 14/11 A3021 RMK A01 T01440112  RH  081%=      5-min Rain = 0
KST2 141536Z 21009KT 15/11 A3021 RMK A01 T01460113  RH  081%=      5-min Rain = 0
KST2 141537Z 21011KT 15/11 A3021 RMK A01 T01480114  RH  080%=      5-min Rain = 0
KST2 141538Z 21011KT 15/11 A3021 RMK A01 T01490113  RH  079%=      5-min Rain = 0
KST2 141539Z 20010KT 15/11 A3021 RMK A01 T01470113  RH  080%=      5-min Rain = 0
KST2 141540Z 20010KT 15/11 A3021 RMK A01 T01460113  RH  080%=      5-min Rain = 0
KST2 141541Z 20009KT 15/11 A3021 RMK A01 T01460113  RH  081%=      5-min Rain = 0
KST2 141542Z 21008KT 15/11 A3021 RMK A01 T01450113  RH  081%=      5-min Rain = 0
KST2 141543Z 19010KT 15/11 A3021 RMK A01 T01450113  RH  081%=      5-min Rain = 0
KST2 141544Z 20010KT 15/11 A3021 RMK A01 T01450113  RH  081%=      5-min Rain = 0
KST2 141545Z 21009KT 15/11 A3021 RMK A01 T01460114  RH  081%=      5-min Rain = 0
KST2 141546Z 21010KT 15/12 A3021 RMK A01 T01490115  RH  080%=      5-min Rain = 0
KST2 141547Z 21008KT 15/11 A3021 RMK A01 T01510114  RH  079%=      5-min Rain = 0
KST2 141548Z 21011KT 15/12 A3021 RMK A01 T01520116  RH  079%=      5-min Rain = 0
KST2 141549Z 21009KT 15/12 A3021 RMK A01 T01540116  RH  078%=      5-min Rain = 0
KST2 141550Z 21008KT 16/12 A3021 RMK A01 T01560117  RH  078%=      5-min Rain = 0
KST2 141551Z 20008KT 16/12 A3021 RMK A01 T01580117  RH  077%=      5-min Rain = 0
KST2 141552Z 20008KT 16/12 A302 RMK A01 T01600117  RH  076%=      5-min Rain = 0
KST2 141553Z 20007KT 16/12 A3021 RMK A01 T01600118  RH  076%=      5-min Rain = 0
KST2 141554Z 20009KT 16/12 A3021 RMK A01 T01610118  RH  076%=      5-min Rain = 0
KST2 141555Z 21011KT 16/12 A3021 RMK A01 T01620118  RH  075%=      5-min Rain = 0
KST2 141556Z 22011KT 16/12 A3021 RMK A01 T01630118  RH  074%=      5-min Rain = 0
KST2 141557Z 22010KT 16/12 A302 RMK A01 T01620118  RH  075%=      5-min Rain = 0
KST2 141558Z 21013KT 16/12 A302 RMK A01 T01620117  RH  075%=      5-min Rain = 0
KST2 141559Z 21014KT 16/12 A302 RMK A01 T01620117  RH  074%=      5-min Rain = 0
KST2 141600Z 21013KT 16/12 A302 RMK A01 T01620117  RH  074%=      5-min Rain = 0
KST2 141601Z 21013KT 16/12 A302 RMK A01 T01630117  RH  074%=      5-min Rain = 0
KST2 141602Z 21012KT 16/12 A302 RMK A01 T01630117  RH  074%=      5-min Rain = 0
KST2 141603Z 21011KT 16/12 A3021 RMK A01 T01640117  RH  074%=      5-min Rain = 0
KST2 141604Z 21013KT 17/12 A3021 RMK A01 T01660117  RH  073%=      5-min Rain = 0
KST2 141605Z 21012KT 17/12 A3021 RMK A01 T01660117  RH  072%=      5-min Rain = 0
KST2 141606Z 21012KT 17/12 A3021 RMK A01 T01670117  RH  072%=      5-min Rain = 0
KST2 141607Z 21013KT 17/12 A3021 RMK A01 T01670117  RH  072%=      5-min Rain = 0
KST2 141608Z 21015KT 17/12 A3021 RMK A01 T01670117  RH  072%=      5-min Rain = 0
KST2 141609Z 22015KT 17/12 A3021 RMK A01 T01670117  RH  072%=      5-min Rain = 0
KST2 141610Z 21013KT 17/12 A3021 RMK A01 T01670117  RH  072%=      5-min Rain = 0
KST2 141611Z 21012KT 17/12 A3021 RMK A01 T01670116  RH  072%=      5-min Rain = 0
KST2 141612Z 21014KT 17/12 A302 RMK A01 T01680117  RH  072%=      5-min Rain = 0
KST2 141613Z 21013KT 17/12 A302 RMK A01 T01690116  RH  071%=      5-min Rain = 0
KST2 141614Z 21014KT 17/12 A302 RMK A01 T01700116  RH  070%=      5-min Rain = 0
KST2 141615Z 21012KT 17/12 A302 RMK A01 T01700116  RH  071%=      5-min Rain = 0
KST2 141616Z 21010KT 17/12 A302 RMK A01 T01700116  RH  071%=      5-min Rain = 0
KST2 141617Z 21013KT 17/12 A302 RMK A01 T01710117  RH  071%=      5-min Rain = 0
KST2 141618Z 21015KT 17/12 A302 RMK A01 T01730117  RH  070%=      5-min Rain = 0
KST2 141619Z 21013KT 17/12 A302 RMK A01 T01720117  RH  070%=      5-min Rain = 0
KST2 141620Z 21014KT 17/12 A302 RMK A01 T01720117  RH  070%=      5-min Rain = 0
KST2 141621Z 22015KT 17/12 A302 RMK A01 T01710116  RH  070%=      5-min Rain = 0
KST2 141622Z 21014KT 17/12 A302 RMK A01 T01710116  RH  070%=      5-min Rain = 0
KST2 141623Z 21014KT 17/12 A302 RMK A01 T01720116  RH  070%=      5-min Rain = 0
KST2 141624Z 21013KT 17/12 A302 RMK A01 T01720116  RH  069%=      5-min Rain = 0
KST2 141625Z 21013KT 17/12 A302 RMK A01 T01730116  RH  069%=      5-min Rain = 0
KST2 141626Z 20013KT 17/12 A302 RMK A01 T01730117  RH  069%=      5-min Rain = 0
KST2 141627Z 21013KT 17/12 A302 RMK A01 T01740117  RH  069%=      5-min Rain = 0
KST2 141628Z 21012KT 17/12 A302 RMK A01 T01740117  RH  069%=      5-min Rain = 0
KST2 141629Z 20012KT 18/12 A302 RMK A01 T01750118  RH  069%=      5-min Rain = 0
KST2 141630Z 20011KT 18/12 A302 RMK A01 T01770119  RH  069%=      5-min Rain = 0
KST2 141631Z 19011KT 17/12 A302 RMK A01 T01740118  RH  069%=      5-min Rain = 0
KST2 141632Z 18012KT 17/12 A302 RMK A01 T01730118  RH  070%=      5-min Rain = 0
KST2 141633Z 18012KT 17/12 A302 RMK A01 T01730119  RH  070%=      5-min Rain = 0
KST2 141634Z 19011KT 17/12 A3019 RMK A01 T01740118  RH  070%=      5-min Rain = 0
KST2 141635Z 19012KT 18/12 A3019 RMK A01 T01750118  RH  069%=      5-min Rain = 0
KST2 141636Z 19014KT 18/12 A3019 RMK A01 T01770118  RH  068%=      5-min Rain = 0
KST2 141637Z 20013KT 18/12 A302 RMK A01 T01760118  RH  069%=      5-min Rain = 0
KST2 141638Z 20012KT 18/12 A302 RMK A01 T01760118  RH  069%=      5-min Rain = 0
KST2 141639Z 20012KT 18/12 A302 RMK A01 T01760119  RH  069%=      5-min Rain = 0
KST2 141640Z 21012KT 18/12 A302 RMK A01 T01780119  RH  068%=      5-min Rain = 0
KST2 141641Z 22012KT 18/12 A302 RMK A01 T01790119  RH  068%=      5-min Rain = 0
KST2 141642Z 20009KT 18/12 A302 RMK A01 T01790119  RH  068%=      5-min Rain = 0
KST2 141643Z 21007KT 18/12 A302 RMK A01 T01790120  RH  068%=      5-min Rain = 0
KST2 141644Z 22008KT 18/12 A302 RMK A01 T01810120  RH  068%=      5-min Rain = 0
KST2 141645Z 20009KT 18/12 A302 RMK A01 T01810120  RH  068%=      5-min Rain = 0
KST2 141646Z 20011KT 18/12 A3019 RMK A01 T01830121  RH  067%=      5-min Rain = 0
KST2 141647Z 20008KT 18/12 A3019 RMK A01 T01830120  RH  067%=      5-min Rain = 0
KST2 141648Z 21008KT 18/12 A3019 RMK A01 T01830122  RH  067%=      5-min Rain = 0
KST2 141649Z 21008KT 19/12 A3019 RMK A01 T01850121  RH  066%=      5-min Rain = 0
KST2 141650Z 21010KT 19/12 A302 RMK A01 T01850121  RH  066%=      5-min Rain = 0
KST2 141651Z 21011KT 19/12 A302 RMK A01 T01860120  RH  065%=      5-min Rain = 0
KST2 141652Z 20009KT 19/12 A3019 RMK A01 T01870120  RH  065%=      5-min Rain = 0
KST2 141653Z 20010KT 19/12 A3019 RMK A01 T01880120  RH  065%=      5-min Rain = 0
KST2 141654Z 20011KT 19/12 A3019 RMK A01 T01890119  RH  064%=      5-min Rain = 0
KST2 141655Z 20011KT 19/12 A3019 RMK A01 T01890119  RH  064%=      5-min Rain = 0
KST2 141656Z 20011KT 19/12 A3019 RMK A01 T01870119  RH  064%=      5-min Rain = 0
KST2 141657Z 22011KT 19/12 A3019 RMK A01 T01880118  RH  064%=      5-min Rain = 0
KST2 141658Z 21013KT 19/12 A3019 RMK A01 T01890118  RH  063%=      5-min Rain = 0
KST2 141659Z 21013KT 19/12 A3019 RMK A01 T01900117  RH  062%=      5-min Rain = 0
KST2 141700Z 21011KT 19/12 A3019 RMK A01 T01890117  RH  063%=      5-min Rain = 0
KST2 141701Z 21011KT 19/12 A3019 RMK A01 T01890118  RH  063%=      5-min Rain = 0
KST2 141702Z 21009KT 19/12 A3019 RMK A01 T01900119  RH  063%=      5-min Rain = 0
KST2 141703Z 21012KT 19/12 A3019 RMK A01 T01900118  RH  063%=      5-min Rain = 0
KST2 141704Z 21011KT 19/12 A3019 RMK A01 T01920117  RH  062%=      5-min Rain = 0
KST2 141705Z 21010KT 19/12 A3019 RMK A01 T01940119  RH  062%=      5-min Rain = 0
KST2 141706Z 21012KT 20/12 A3019 RMK A01 T01960117  RH  060%=      5-min Rain = 0
KST2 141707Z 21013KT 20/12 A3019 RMK A01 T01950116  RH  060%=      5-min Rain = 0
KST2 141708Z 22014KT 20/12 A3019 RMK A01 T01960116  RH  060%=      5-min Rain = 0
KST2 141709Z 22014KT 20/12 A3019 RMK A01 T01970115  RH  059%=      5-min Rain = 0
KST2 141710Z 22013KT 20/12 A3019 RMK A01 T01960116  RH  060%=      5-min Rain = 0
KST2 141711Z 20015KT 20/12 A3019 RMK A01 T01960115  RH  060%=      5-min Rain = 0
KST2 141712Z 20013KT 20/12 A3019 RMK A01 T01950116  RH  060%=      5-min Rain = 0
KST2 141713Z 21012KT 20/12 A3019 RMK A01 T01950115  RH  060%=      5-min Rain = 0
KST2 141714Z 19013KT 20/12 A3019 RMK A01 T01950115  RH  060%=      5-min Rain = 0
KST2 141715Z 20012KT 20/12 A3019 RMK A01 T01950115  RH  060%=      5-min Rain = 0
KST2 141716Z 21014KT 20/12 A3019 RMK A01 T01970116  RH  059%=      5-min Rain = 0
KST2 141717Z 20013KT 20/12 A3019 RMK A01 T01990115  RH  059%=      5-min Rain = 0
KST2 141718Z 21013KT 20/11 A3019 RMK A01 T01970114  RH  059%=      5-min Rain = 0
KST2 141719Z 20015KT 20/11 A3019 RMK A01 T01950114  RH  059%=      5-min Rain = 0
KST2 141720Z 21013KT 20/11 A3019 RMK A01 T01960114  RH  059%=      5-min Rain = 0
KST2 141721Z 22015KT 20/11 A3019 RMK A01 T01970114  RH  059%=      5-min Rain = 0
KST2 141722Z 21013KT 20/12 A3018 RMK A01 T01980115  RH  059%=      5-min Rain = 0
KST2 141723Z 20017KT 20/12 A3018 RMK A01 T02000115  RH  058%=      5-min Rain = 0
KST2 141724Z 20016KT 20/11 A3018 RMK A01 T02000114  RH  058%=      5-min Rain = 0
KST2 141725Z 21016KT 20/11 A3018 RMK A01 T02000114  RH  058%=      5-min Rain = 0
KST2 141726Z 21016KT 20/12 A3018 RMK A01 T02000115  RH  058%=      5-min Rain = 0
KST2 141727Z 20014KT 20/11 A3018 RMK A01 T02000114  RH  058%=      5-min Rain = 0
KST2 141728Z 21013KT 20/11 A3018 RMK A01 T02000114  RH  058%=      5-min Rain = 0
KST2 141729Z 21017KT 20/11 A3018 RMK A01 T02000114  RH  057%=      5-min Rain = 0
KST2 141730Z 21016KT 20/11 A3018 RMK A01 T02010114  RH  057%=      5-min Rain = 0
KST2 141731Z 21015KT 20/12 A3018 RMK A01 T02030115  RH  057%=      5-min Rain = 0
KST2 141732Z 20013KT 20/11 A3018 RMK A01 T02040114  RH  056%=      5-min Rain = 0
KST2 141733Z 20014KT 21/11 A3017 RMK A01 T02050114  RH  056%=      5-min Rain = 0
KST2 141734Z 22014KT 21/11 A3017 RMK A01 T02050114  RH  056%=      5-min Rain = 0
KST2 141735Z 22012KT 21/12 A3017 RMK A01 T02060115  RH  056%=      5-min Rain = 0
KST2 141736Z 21014KT 21/12 A3017 RMK A01 T02070115  RH  056%=      5-min Rain = 0
KST2 141737Z 19013KT 21/12 A3017 RMK A01 T02060116  RH  056%=      5-min Rain = 0
KST2 141738Z 19015KT 20/12 A3017 RMK A01 T02040116  RH  057%=      5-min Rain = 0
KST2 141739Z 18014KT 20/12 A3017 RMK A01 T02030116  RH  057%=      5-min Rain = 0
KST2 141740Z 19014KT 20/12 A3017 RMK A01 T02030116  RH  057%=      5-min Rain = 0
KST2 141741Z 19013KT 20/12 A3017 RMK A01 T02030116  RH  057%=      5-min Rain = 0
KST2 141742Z 20015KT 21/12 A3017 RMK A01 T02060116  RH  056%=      5-min Rain = 0
KST2 141743Z 19012KT 21/12 A3017 RMK A01 T02060116  RH  056%=      5-min Rain = 0
KST2 141744Z 19011KT 21/12 A3017 RMK A01 T02070118  RH  057%=      5-min Rain = 0
KST2 141745Z 19013KT 21/12 A3017 RMK A01 T02100117  RH  055%=      5-min Rain = 0
KST2 141746Z 20011KT 21/12 A3017 RMK A01 T02090117  RH  055%=      5-min Rain = 0
KST2 141747Z 20011G17KT 21/12 A3017 RMK A01 T02070118  RH  056%=      5-min Rain = 0
KST2 141748Z 21013KT 21/12 A3017 RMK A01 T02080117  RH  056%=      5-min Rain = 0
KST2 141749Z 19011KT 21/12 A3017 RMK A01 T02080117  RH  056%=      5-min Rain = 0
KST2 141750Z 19012KT 21/12 A3017 RMK A01 T02090117  RH  055%=      5-min Rain = 0
KST2 141751Z 19012KT 21/12 A3016 RMK A01 T02100118  RH  056%=      5-min Rain = 0
KST2 141752Z 19013KT 21/12 A3016 RMK A01 T02110118  RH  055%=      5-min Rain = 0
KST2 141753Z 18011KT 21/12 A3016 RMK A01 T02120118  RH  055%=      5-min Rain = 0
KST2 141754Z 19010KT 21/12 A3016 RMK A01 T02090118  RH  056%=      5-min Rain = 0
KST2 141755Z 19010KT 21/12 A3016 RMK A01 T02080117  RH  056%=      5-min Rain = 0
KST2 141756Z 18010KT 21/12 A3016 RMK A01 T02090116  RH  055%=      5-min Rain = 0
KST2 141757Z 19015KT 21/12 A3016 RMK A01 T02100117  RH  055%=      5-min Rain = 0
KST2 141758Z 19011KT 21/12 A3016 RMK A01 T02080116  RH  056%=      5-min Rain = 0
KST2 141759Z 19012KT 21/12 A3016 RMK A01 T02070117  RH  056%=      5-min Rain = 0
KST2 141800Z 18011KT 21/12 A3016 RMK A01 T02070116  RH  056%=      5-min Rain = 0
KST2 141801Z 20013KT 21/12 A3016 RMK A01 T02080117  RH  056%=      5-min Rain = 0
KST2 141802Z 20014KT 21/12 A3016 RMK A01 T02100116  RH  055%=      5-min Rain = 0
KST2 141803Z 20012KT 21/12 A3016 RMK A01 T02110116  RH  054%=      5-min Rain = 0
KST2 141804Z 20011KT 21/12 A3016 RMK A01 T02110117  RH  055%=      5-min Rain = 0
KST2 141805Z 19012KT 21/12 A3016 RMK A01 T02120117  RH  054%=      5-min Rain = 0
KST2 141806Z 19009KT 21/12 A3016 RMK A01 T02130117  RH  054%=      5-min Rain = 0
KST2 141807Z 19009KT 21/12 A3016 RMK A01 T02130118  RH  054%=      5-min Rain = 0
KST2 141808Z 20008KT 21/12 A3016 RMK A01 T02130117  RH  054%=      5-min Rain = 0
KST2 141809Z 20012KT 22/12 A3016 RMK A01 T02150115  RH  053%=      5-min Rain = 0
KST2 141810Z 22012KT 22/11 A3016 RMK A01 T02170112  RH  051%=      5-min Rain = 0
KST2 141811Z 21012KT 22/11 A3016 RMK A01 T02200114  RH  051%=      5-min Rain = 0
KST2 141812Z 21012KT 22/11 A3016 RMK A01 T02240113  RH  049%=      5-min Rain = 0
KST2 141813Z 21011KT 23/11 A3016 RMK A01 T02250112  RH  049%=      5-min Rain = 0
KST2 141814Z 20011KT 22/11 A3015 RMK A01 T02240112  RH  049%=      5-min Rain = 0
KST2 141815Z 20015KT 23/11 A3015 RMK A01 T02260112  RH  048%=      5-min Rain = 0
KST2 141816Z 22014KT 23/11 A3015 RMK A01 T02270113  RH  048%=      5-min Rain = 0
KST2 141817Z 22011KT 23/11 A3015 RMK A01 T02280113  RH  048%=      5-min Rain = 0
KST2 141818Z 20009KT 23/11 A3015 RMK A01 T02270113  RH  048%=      5-min Rain = 0
KST2 141819Z 20008KT 23/11 A3015 RMK A01 T02260114  RH  049%=      5-min Rain = 0
KST2 141820Z 22011KT 23/11 A3015 RMK A01 T02260113  RH  049%=      5-min Rain = 0
KST2 141821Z 23014KT 23/11 A3015 RMK A01 T02250112  RH  049%=      5-min Rain = 0
KST2 141822Z 21014KT 23/11 A3015 RMK A01 T02250112  RH  049%=      5-min Rain = 0
KST2 141823Z 19014KT 23/11 A3015 RMK A01 T02250110  RH  048%=      5-min Rain = 0
KST2 141824Z 20010KT 22/11 A3015 RMK A01 T02220110  RH  049%=      5-min Rain = 0
KST2 141825Z 22013KT 22/11 A3015 RMK A01 T02220111  RH  049%=      5-min Rain = 0
KST2 141826Z 23013KT 22/11 A3015 RMK A01 T02240110  RH  049%=      5-min Rain = 0
KST2 141827Z 22014KT 22/11 A3015 RMK A01 T02240110  RH  048%=      5-min Rain = 0
KST2 141828Z 21014KT 23/11 A3015 RMK A01 T02250111  RH  049%=      5-min Rain = 0
KST2 141829Z 21014KT 23/11 A3014 RMK A01 T02250111  RH  048%=      5-min Rain = 0
KST2 141830Z 21012KT 23/11 A3014 RMK A01 T02250112  RH  049%=      5-min Rain = 0
KST2 141831Z 21013KT 23/11 A3014 RMK A01 T02280113  RH  048%=      5-min Rain = 0
KST2 141832Z 20013KT 23/11 A3014 RMK A01 T02290112  RH  048%=      5-min Rain = 0
KST2 141833Z 21012KT 23/11 A3014 RMK A01 T02280113  RH  048%=      5-min Rain = 0
KST2 141834Z 21013KT 23/11 A3014 RMK A01 T02270113  RH  048%=      5-min Rain = 0
KST2 141835Z 19013KT 23/11 A3014 RMK A01 T02270114  RH  049%=      5-min Rain = 0
KST2 141836Z 20012KT 23/12 A3014 RMK A01 T02280115  RH  049%=      5-min Rain = 0
KST2 141837Z 20012KT 23/12 A3014 RMK A01 T02300115  RH  048%=      5-min Rain = 0
KST2 141838Z 19014KT 23/12 A3014 RMK A01 T02330115  RH  047%=      5-min Rain = 0
KST2 141839Z 19015KT 23/11 A3014 RMK A01 T02330114  RH  047%=      5-min Rain = 0
KST2 141840Z 19014KT 23/12 A3014 RMK A01 T02330115  RH  047%=      5-min Rain = 0
KST2 141841Z 20013KT 23/11 A3014 RMK A01 T02320113  RH  047%=      5-min Rain = 0
KST2 141842Z 20011G16KT 23/11 A3014 RMK A01 T02300114  RH  048%=      5-min Rain = 0
KST2 141843Z 20015KT 23/11 A3014 RMK A01 T02290114  RH  048%=      5-min Rain = 0
KST2 141844Z 20015KT 23/11 A3014 RMK A01 T02280113  RH  048%=      5-min Rain = 0
KST2 141845Z 20014KT 23/11 A3014 RMK A01 T02280113  RH  048%=      5-min Rain = 0
KST2 141846Z 19011KT 23/12 A3014 RMK A01 T02280115  RH  049%=      5-min Rain = 0
KST2 141847Z 19011KT 23/12 A3013 RMK A01 T02300115  RH  048%=      5-min Rain = 0
KST2 141848Z 19015KT 23/12 A3013 RMK A01 T02330117  RH  048%=      5-min Rain = 0
KST2 141849Z 19013KT 23/12 A3013 RMK A01 T02340116  RH  047%=      5-min Rain = 0
KST2 141850Z 20012KT 23/12 A3013 RMK A01 T02330116  RH  048%=      5-min Rain = 0
KST2 141851Z 19012KT 23/12 A3013 RMK A01 T02330116  RH  048%=      5-min Rain = 0
KST2 141852Z 19012KT 23/12 A3013 RMK A01 T02300116  RH  048%=      5-min Rain = 0
KST2 141853Z 19013KT 23/12 A3013 RMK A01 T02300115  RH  048%=      5-min Rain = 0
KST2 141854Z 20012KT 23/12 A3013 RMK A01 T02310116  RH  048%=      5-min Rain = 0
KST2 141855Z 19013KT 23/12 A3013 RMK A01 T02320117  RH  048%=      5-min Rain = 0
KST2 141856Z 21016KT 23/12 A3013 RMK A01 T02340117  RH  048%=      5-min Rain = 0
KST2 141857Z 21013KT 24/12 A3013 RMK A01 T02350116  RH  047%=      5-min Rain = 0
KST2 141858Z 20013KT 23/12 A3013 RMK A01 T02340116  RH  047%=      5-min Rain = 0
KST2 141859Z 20012KT 24/12 A3013 RMK A01 T02350117  RH  047%=      5-min Rain = 0
KST2 141900Z 21015KT 24/12 A3013 RMK A01 T02350117  RH  047%=      5-min Rain = 0
KST2 141901Z 20014KT 24/12 A3013 RMK A01 T02360118  RH  047%=      5-min Rain = 0
KST2 141902Z 19014KT 24/12 A3013 RMK A01 T02360117  RH  047%=      5-min Rain = 0
KST2 141903Z 20013KT 23/12 A3013 RMK A01 T02340118  RH  048%=      5-min Rain = 0
KST2 141904Z 20016KT 24/12 A3013 RMK A01 T02350118  RH  048%=      5-min Rain = 0
KST2 141905Z 20014KT 24/12 A3013 RMK A01 T02360117  RH  047%=      5-min Rain = 0
KST2 141906Z 19015KT 24/12 A3012 RMK A01 T02360118  RH  047%=      5-min Rain = 0
KST2 141907Z 19012KT 24/12 A3012 RMK A01 T02360118  RH  048%=      5-min Rain = 0
KST2 141908Z 19009KT 23/12 A3013 RMK A01 T02340117  RH  048%=      5-min Rain = 0
KST2 141909Z 19013G18KT 23/12 A3012 RMK A01 T02340119  RH  048%=      5-min Rain = 0
KST2 141910Z 18014KT 24/12 A3012 RMK A01 T02380118  RH  047%=      5-min Rain = 0
KST2 141911Z 18012KT 24/12 A3012 RMK A01 T02380118  RH  047%=      5-min Rain = 0
KST2 141912Z 20013KT 24/12 A3012 RMK A01 T02380117  RH  047%=      5-min Rain = 0
KST2 141913Z 19014KT 24/12 A3012 RMK A01 T02400118  RH  046%=      5-min Rain = 0
KST2 141914Z 18017KT 24/12 A3012 RMK A01 T02400119  RH  047%=      5-min Rain = 0
KST2 141915Z 18014KT 24/12 A3012 RMK A01 T02370119  RH  047%=      5-min Rain = 0
KST2 141916Z 19016KT 24/12 A3012 RMK A01 T02350119  RH  048%=      5-min Rain = 0
KST2 141917Z 19012KT 23/12 A3012 RMK A01 T02340119  RH  048%=      5-min Rain = 0
KST2 141918Z 17014G19KT 23/12 A3012 RMK A01 T02340119  RH  049%=      5-min Rain = 0
KST2 141919Z 20016KT 24/12 A3011 RMK A01 T02370119  RH  048%=      5-min Rain = 0
KST2 141920Z 18016KT 24/12 A3011 RMK A01 T02390119  RH  047%=      5-min Rain = 0
KST2 141921Z 19014KT 24/12 A3011 RMK A01 T02380118  RH  047%=      5-min Rain = 0
KST2 141922Z 19013KT 24/12 A3011 RMK A01 T02380119  RH  047%=      5-min Rain = 0
KST2 141923Z 19013KT 24/12 A3011 RMK A01 T02380119  RH  047%=      5-min Rain = 0
KST2 141924Z 20015KT 24/12 A3011 RMK A01 T02400117  RH  046%=      5-min Rain = 0
KST2 141925Z 20016KT 24/12 A3011 RMK A01 T02410116  RH  045%=      5-min Rain = 0
KST2 141926Z 20016KT 24/12 A3011 RMK A01 T02420117  RH  045%=      5-min Rain = 0
KST2 141927Z 20013KT 24/12 A3011 RMK A01 T02410116  RH  046%=      5-min Rain = 0
KST2 141928Z 19013KT 24/12 A3011 RMK A01 T02380117  RH  046%=      5-min Rain = 0
KST2 141929Z 19014KT 24/12 A3011 RMK A01 T02400118  RH  046%=      5-min Rain = 0
KST2 141930Z 19013KT 24/12 A3011 RMK A01 T02410116  RH  046%=      5-min Rain = 0
KST2 141931Z 19012KT 24/12 A3011 RMK A01 T02400118  RH  046%=      5-min Rain = 0
KST2 141932Z 19013KT 24/12 A3011 RMK A01 T02420118  RH  046%=      5-min Rain = 0
KST2 141933Z 18014G21KT 24/12 A301 RMK A01 T02420117  RH  046%=      5-min Rain = 0
KST2 141934Z 19018KT 25/12 A301 RMK A01 T02450117  RH  045%=      5-min Rain = 0
KST2 141935Z 20016KT 24/12 A301 RMK A01 T02440116  RH  045%=      5-min Rain = 0
KST2 141936Z 21016KT 25/12 A301 RMK A01 T02450116  RH  044%=      5-min Rain = 0
KST2 141937Z 20013KT 25/12 A301 RMK A01 T02460117  RH  044%=      5-min Rain = 0
KST2 141938Z 18015KT 25/12 A301 RMK A01 T02470118  RH  044%=      5-min Rain = 0
KST2 141939Z 19014KT 25/12 A301 RMK A01 T02480116  RH  044%=      5-min Rain = 0
KST2 141940Z 19015KT 25/12 A301 RMK A01 T02460116  RH  044%=      5-min Rain = 0
KST2 141941Z 20011KT 25/11 A301 RMK A01 T02480114  RH  043%=      5-min Rain = 0
KST2 141942Z 19012G17KT 25/12 A301 RMK A01 T02460115  RH  044%=      5-min Rain = 0
KST2 141943Z 18017KT 25/12 A3009 RMK A01 T02460115  RH  044%=      5-min Rain = 0
KST2 141944Z 19013KT 24/11 A3009 RMK A01 T02440114  RH  044%=      5-min Rain = 0
KST2 141945Z 19013KT 25/12 A3009 RMK A01 T02460116  RH  044%=      5-min Rain = 0
KST2 141946Z 17015KT 25/12 A3009 RMK A01 T02490116  RH  043%=      5-min Rain = 0
KST2 141947Z 17015KT 25/12 A3009 RMK A01 T02490116  RH  043%=      5-min Rain = 0
KST2 141948Z 18015KT 25/12 A3009 RMK A01 T02500116  RH  043%=      5-min Rain = 0
KST2 141949Z 18016KT 25/12 A3009 RMK A01 T02510116  RH  043%=      5-min Rain = 0
KST2 141950Z 18018KT 26/12 A3009 RMK A01 T02550116  RH  042%=      5-min Rain = 0
KST2 141951Z 18015KT 26/12 A3009 RMK A01 T02550115  RH  042%=      5-min Rain = 0
KST2 141952Z 17015KT 25/12 A3009 RMK A01 T02530116  RH  042%=      5-min Rain = 0
KST2 141953Z 19014KT 25/11 A3009 RMK A01 T02530114  RH  042%=      5-min Rain = 0
KST2 141954Z 19015KT 25/11 A3009 RMK A01 T02540114  RH  042%=      5-min Rain = 0
KST2 141955Z 20014KT 26/11 A3009 RMK A01 T02550114  RH  041%=      5-min Rain = 0
KST2 141956Z 19013KT 26/12 A3009 RMK A01 T02560116  RH  042%=      5-min Rain = 0
KST2 141957Z 19015KT 25/12 A3009 RMK A01 T02530116  RH  042%=      5-min Rain = 0
KST2 141958Z 18015KT 25/12 A3008 RMK A01 T02520116  RH  043%=      5-min Rain = 0
KST2 141959Z 17016KT 25/12 A3008 RMK A01 T02500116  RH  043%=      5-min Rain = 0
KST2 142000Z 18017KT 25/12 A3008 RMK A01 T02510116  RH  043%=      5-min Rain = 0
KST2 142001Z 16014G21KT 25/12 A3008 RMK A01 T02520116  RH  042%=      5-min Rain = 0
KST2 142002Z 18018KT 25/12 A3008 RMK A01 T02510117  RH  043%=      5-min Rain = 0
KST2 142003Z 20012KT 25/11 A3008 RMK A01 T02510114  RH  042%=      5-min Rain = 0
KST2 142004Z 18016KT 25/12 A3008 RMK A01 T02510116  RH  043%=      5-min Rain = 0
KST2 142005Z 18013G18KT 25/12 A3008 RMK A01 T02520116  RH  043%=      5-min Rain = 0
KST2 142006Z 18015KT 25/12 A3008 RMK A01 T02530116  RH  042%=      5-min Rain = 0
KST2 142007Z 18014KT 25/12 A3008 RMK A01 T02530115  RH  042%=      5-min Rain = 0
KST2 142008Z 18015KT 25/12 A3008 RMK A01 T02520117  RH  043%=      5-min Rain = 0
KST2 142009Z 18014KT 25/12 A3008 RMK A01 T02510118  RH  043%=      5-min Rain = 0
KST2 142010Z 18013KT 25/12 A3008 RMK A01 T02490117  RH  044%=      5-min Rain = 0
KST2 142011Z 16015KT 25/12 A3008 RMK A01 T02480118  RH  044%=      5-min Rain = 0
KST2 142012Z 17015KT 25/12 A3007 RMK A01 T02490117  RH  044%=      5-min Rain = 0
KST2 142013Z 17011KT 25/12 A3008 RMK A01 T02490117  RH  044%=      5-min Rain = 0
KST2 142014Z 17015KT 25/12 A3007 RMK A01 T02500117  RH  044%=      5-min Rain = 0
KST2 142015Z 17012KT 25/12 A3007 RMK A01 T02500118  RH  044%=      5-min Rain = 0
KST2 142016Z 17013G18KT 25/12 A3007 RMK A01 T02510119  RH  044%=      5-min Rain = 0
KST2 142017Z 19013G18KT 26/12 A3007 RMK A01 T02570119  RH  042%=      5-min Rain = 0
KST2 142018Z 18012KT 26/12 A3007 RMK A01 T02580117  RH  041%=      5-min Rain = 0
KST2 142019Z 18012KT 25/12 A3007 RMK A01 T02540117  RH  042%=      5-min Rain = 0
KST2 142020Z 18013KT 26/12 A3007 RMK A01 T02550116  RH  042%=      5-min Rain = 0
KST2 142021Z 17016G21KT 26/12 A3007 RMK A01 T02560117  RH  042%=      5-min Rain = 0
KST2 142022Z 18016KT 26/12 A3007 RMK A01 T02600117  RH  041%=      5-min Rain = 0
KST2 142023Z 17014KT 26/12 A3007 RMK A01 T02590115  RH  040%=      5-min Rain = 0
KST2 142024Z 18017KT 26/12 A3007 RMK A01 T02570115  RH  041%=      5-min Rain = 0
KST2 142025Z 19015KT 26/11 A3007 RMK A01 T02590114  RH  040%=      5-min Rain = 0
KST2 142026Z 18017KT 26/11 A3007 RMK A01 T02570114  RH  041%=      5-min Rain = 0
KST2 142027Z 18017KT 26/11 A3007 RMK A01 T02570113  RH  041%=      5-min Rain = 0
KST2 142028Z 17016KT 26/11 A3007 RMK A01 T02560114  RH  041%=      5-min Rain = 0
KST2 142029Z 18016KT 25/11 A3007 RMK A01 T02540112  RH  041%=      5-min Rain = 0
KST2 142030Z 20017KT 25/11 A3007 RMK A01 T02540110  RH  040%=      5-min Rain = 0
KST2 142031Z 20015KT 26/11 A3007 RMK A01 T02550110  RH  040%=      5-min Rain = 0
KST2 142032Z 20012KT 26/11 A3007 RMK A01 T02570112  RH  040%=      5-min Rain = 0
KST2 142033Z 18015KT 26/11 A3006 RMK A01 T02600112  RH  040%=      5-min Rain = 0
KST2 142034Z 18016KT 26/11 A3006 RMK A01 T02580111  RH  040%=      5-min Rain = 0
KST2 142035Z 19017KT 26/11 A3006 RMK A01 T02580109  RH  039%=      5-min Rain = 0
KST2 142036Z 19014KT 26/11 A3006 RMK A01 T02570109  RH  039%=      5-min Rain = 0
KST2 142037Z 19015KT 26/11 A3006 RMK A01 T02590110  RH  039%=      5-min Rain = 0
KST2 142038Z 20014KT 26/11 A3006 RMK A01 T02600110  RH  039%=      5-min Rain = 0
KST2 142039Z 20016KT 26/11 A3006 RMK A01 T02600110  RH  039%=      5-min Rain = 0
KST2 142040Z 20016KT 26/11 A3006 RMK A01 T02620110  RH  038%=      5-min Rain = 0
KST2 142041Z 19015KT 26/11 A3006 RMK A01 T02620108  RH  038%=      5-min Rain = 0
KST2 142042Z 19020KT 26/11 A3006 RMK A01 T02590108  RH  039%=      5-min Rain = 0
KST2 142043Z 20019KT 26/11 A3006 RMK A01 T02620108  RH  038%=      5-min Rain = 0
KST2 142044Z 20017KT 26/11 A3006 RMK A01 T02630107  RH  037%=      5-min Rain = 0
KST2 142045Z 20017KT 26/11 A3006 RMK A01 T02630105  RH  037%=      5-min Rain = 0
KST2 142046Z 19016KT 26/10 A3006 RMK A01 T02640103  RH  036%=      5-min Rain = 0
KST2 142047Z 20014KT 27/10 A3005 RMK A01 T02650104  RH  036%=      5-min Rain = 0
KST2 142048Z 20019KT 27/11 A3005 RMK A01 T02650106  RH  037%=      5-min Rain = 0
KST2 142049Z 20015KT 27/11 A3005 RMK A01 T02650107  RH  037%=      5-min Rain = 0
KST2 142050Z 18014KT 26/11 A3005 RMK A01 T02640108  RH  038%=      5-min Rain = 0
KST2 142051Z 18016KT 27/11 A3005 RMK A01 T02650108  RH  037%=      5-min Rain = 0
KST2 142052Z 19018KT 27/11 A3005 RMK A01 T02650107  RH  037%=      5-min Rain = 0
KST2 142053Z 18018KT 27/11 A3005 RMK A01 T02650108  RH  037%=      5-min Rain = 0
KST2 142054Z 18014KT 26/11 A3005 RMK A01 T02630108  RH  038%=      5-min Rain = 0
KST2 142055Z 19015KT 26/11 A3005 RMK A01 T02620110  RH  038%=      5-min Rain = 0
KST2 142056Z 19016KT 26/11 A3005 RMK A01 T02630109  RH  038%=      5-min Rain = 0
KST2 142057Z 19016KT 26/11 A3005 RMK A01 T02620110  RH  039%=      5-min Rain = 0
KST2 142058Z 18017KT 26/11 A3005 RMK A01 T02630111  RH  038%=      5-min Rain = 0
KST2 142059Z 18017KT 26/11 A3005 RMK A01 T02640110  RH  038%=      5-min Rain = 0
KST2 142100Z 18016KT 26/11 A3005 RMK A01 T02630110  RH  038%=      5-min Rain = 0
KST2 142101Z 18017KT 26/11 A3004 RMK A01 T02630109  RH  038%=      5-min Rain = 0
KST2 142102Z 19018KT 26/11 A3005 RMK A01 T02620107  RH  038%=      5-min Rain = 0
KST2 142103Z 20017KT 26/11 A3005 RMK A01 T02620107  RH  038%=      5-min Rain = 0
KST2 142104Z 19017KT 26/11 A3004 RMK A01 T02620110  RH  039%=      5-min Rain = 0
KST2 142105Z 19018KT 26/11 A3004 RMK A01 T02610110  RH  039%=      5-min Rain = 0
KST2 142106Z 18017KT 26/11 A3004 RMK A01 T02620108  RH  038%=      5-min Rain = 0
KST2 142107Z 18020KT 26/11 A3004 RMK A01 T02630108  RH  038%=      5-min Rain = 0
KST2 142108Z 19017KT 26/11 A3004 RMK A01 T02640109  RH  038%=      5-min Rain = 0
KST2 142109Z 19014KT 26/11 A3004 RMK A01 T02630111  RH  039%=      5-min Rain = 0
KST2 142110Z 19018KT 26/11 A3004 RMK A01 T02640111  RH  038%=      5-min Rain = 0
KST2 142111Z 19019KT 27/11 A3004 RMK A01 T02650110  RH  038%=      5-min Rain = 0
KST2 142112Z 18016KT 27/11 A3004 RMK A01 T02670107  RH  037%=      5-min Rain = 0
KST2 142113Z 20018KT 27/11 A3004 RMK A01 T02670110  RH  037%=      5-min Rain = 0
KST2 142114Z 21016KT 27/11 A3004 RMK A01 T02670110  RH  037%=      5-min Rain = 0
KST2 142115Z 19017KT 27/11 A3004 RMK A01 T02670109  RH  037%=      5-min Rain = 0
KST2 142116Z 19012KT 27/11 A3004 RMK A01 T02670109  RH  037%=      5-min Rain = 0
KST2 142117Z 18016KT 27/11 A3004 RMK A01 T02670111  RH  038%=      5-min Rain = 0
KST2 142118Z 19017KT 27/11 A3004 RMK A01 T02690110  RH  037%=      5-min Rain = 0
KST2 142119Z 21016KT 27/10 A3004 RMK A01 T02710104  RH  035%=      5-min Rain = 0
KST2 142120Z 20017KT 27/11 A3004 RMK A01 T02690107  RH  036%=      5-min Rain = 0
KST2 142121Z 18015KT 27/11 A3004 RMK A01 T02690113  RH  038%=      5-min Rain = 0
KST2 142122Z 17016KT 27/11 A3004 RMK A01 T02700114  RH  038%=      5-min Rain = 0
KST2 142123Z 19015KT 27/11 A3004 RMK A01 T02670111  RH  038%=      5-min Rain = 0
KST2 142124Z 19017KT 27/11 A3004 RMK A01 T02680109  RH  037%=      5-min Rain = 0
KST2 142125Z 19018KT 27/11 A3004 RMK A01 T02700109  RH  037%=      5-min Rain = 0
KST2 142126Z 20018KT 27/11 A3004 RMK A01 T02700110  RH  037%=      5-min Rain = 0
KST2 142127Z 20019KT 27/11 A3004 RMK A01 T02690112  RH  037%=      5-min Rain = 0
KST2 142128Z 19016KT 27/11 A3004 RMK A01 T02700113  RH  038%=      5-min Rain = 0
KST2 142129Z 20014KT 27/11 A3004 RMK A01 T02690113  RH  038%=      5-min Rain = 0
KST2 142130Z 19013KT 27/11 A3004 RMK A01 T02680113  RH  038%=      5-min Rain = 0
KST2 142131Z 18019KT 27/11 A3003 RMK A01 T02710114  RH  038%=      5-min Rain = 0
KST2 142132Z 19018KT 27/11 A3003 RMK A01 T02710112  RH  037%=      5-min Rain = 0
KST2 142133Z 19016KT 27/11 A3003 RMK A01 T02680111  RH  037%=      5-min Rain = 0
KST2 142134Z 20019KT 27/11 A3003 RMK A01 T02680109  RH  037%=      5-min Rain = 0
KST2 142135Z 20019KT 27/11 A3003 RMK A01 T02680107  RH  037%=      5-min Rain = 0
KST2 142136Z 20017KT 27/11 A3003 RMK A01 T02690106  RH  036%=      5-min Rain = 0
KST2 142137Z 19016KT 27/11 A3003 RMK A01 T02690108  RH  036%=      5-min Rain = 0
KST2 142138Z 19018KT 27/11 A3003 RMK A01 T02710108  RH  036%=      5-min Rain = 0
KST2 142139Z 18016KT 27/11 A3003 RMK A01 T02710108  RH  036%=      5-min Rain = 0
KST2 142140Z 18017KT 27/11 A3003 RMK A01 T02720110  RH  036%=      5-min Rain = 0
KST2 142141Z 19019KT 27/11 A3003 RMK A01 T02720108  RH  036%=      5-min Rain = 0
KST2 142142Z 18017KT 27/11 A3003 RMK A01 T02700109  RH  037%=      5-min Rain = 0
KST2 142143Z 19017KT 27/11 A3003 RMK A01 T02690111  RH  037%=      5-min Rain = 0
KST2 142144Z 19019KT 27/11 A3003 RMK A01 T02700111  RH  037%=      5-min Rain = 0
KST2 142145Z 19018KT 27/11 A3003 RMK A01 T02700109  RH  036%=      5-min Rain = 0
KST2 142146Z 20021KT 27/11 A3003 RMK A01 T02710106  RH  036%=      5-min Rain = 0
KST2 142147Z 20020KT 27/10 A3003 RMK A01 T02730104  RH  035%=      5-min Rain = 0
KST2 142148Z 20017KT 27/11 A3003 RMK A01 T02730106  RH  035%=      5-min Rain = 0
KST2 142149Z 20017KT 27/11 A3002 RMK A01 T02730106  RH  035%=      5-min Rain = 0
KST2 142150Z 20015KT 27/11 A3002 RMK A01 T02730106  RH  035%=      5-min Rain = 0
KST2 142151Z 20016KT 27/11 A3002 RMK A01 T02730107  RH  035%=      5-min Rain = 0
KST2 142152Z 20019KT 27/11 A3002 RMK A01 T02740108  RH  035%=      5-min Rain = 0
KST2 142153Z 19016KT 27/11 A3002 RMK A01 T02740108  RH  036%=      5-min Rain = 0
KST2 142154Z 21016KT 27/11 A3002 RMK A01 T02740108  RH  035%=      5-min Rain = 0
KST2 142155Z 19015KT 27/11 A3002 RMK A01 T02740109  RH  036%=      5-min Rain = 0
KST2 142156Z 19016KT 28/11 A3002 RMK A01 T02760109  RH  035%=      5-min Rain = 0
KST2 142157Z 19016KT 28/11 A3002 RMK A01 T02770106  RH  034%=      5-min Rain = 0
KST2 142158Z 19017KT 28/11 A3002 RMK A01 T02750105  RH  035%=      5-min Rain = 0
KST2 142159Z 19015KT 27/11 A3002 RMK A01 T02730107  RH  035%=      5-min Rain = 0
KST2 142200Z 18014KT 27/11 A3002 RMK A01 T02730108  RH  036%=      5-min Rain = 0
KST2 142201Z 18014KT 27/11 A3002 RMK A01 T02730108  RH  036%=      5-min Rain = 0
KST2 142202Z 19014KT 27/11 A3002 RMK A01 T02730108  RH  036%=      5-min Rain = 0
KST2 142203Z 20019KT 28/11 A3002 RMK A01 T02750106  RH  035%=      5-min Rain = 0
KST2 142204Z 19016KT 28/11 A3002 RMK A01 T02760106  RH  035%=      5-min Rain = 0
KST2 142205Z 19017KT 28/11 A3002 RMK A01 T02750105  RH  035%=      5-min Rain = 0
KST2 142206Z 19014KT 28/11 A3002 RMK A01 T02750106  RH  035%=      5-min Rain = 0
KST2 142207Z 20016KT 28/11 A3002 RMK A01 T02750107  RH  035%=      5-min Rain = 0
KST2 142208Z 20017KT 28/11 A3002 RMK A01 T02750107  RH  035%=      5-min Rain = 0
KST2 142209Z 19017KT 28/11 A3002 RMK A01 T02750106  RH  035%=      5-min Rain = 0
KST2 142210Z 19019KT 28/11 A3002 RMK A01 T02750107  RH  035%=      5-min Rain = 0
KST2 142211Z 20017KT 28/11 A3002 RMK A01 T02750109  RH  035%=      5-min Rain = 0
KST2 142212Z 20015KT 28/11 A3002 RMK A01 T02750109  RH  035%=      5-min Rain = 0
KST2 142213Z 19016KT 28/11 A3002 RMK A01 T02750109  RH  035%=      5-min Rain = 0
KST2 142214Z 19018KT 28/11 A3002 RMK A01 T02760109  RH  035%=      5-min Rain = 0
KST2 142215Z 18016KT 28/11 A3002 RMK A01 T02760109  RH  035%=      5-min Rain = 0
KST2 142216Z 19017KT 28/11 A3001 RMK A01 T02750109  RH  036%=      5-min Rain = 0
KST2 142217Z 19014KT 28/11 A3002 RMK A01 T02750108  RH  035%=      5-min Rain = 0
KST2 142218Z 19016G21KT 28/11 A3001 RMK A01 T02770108  RH  035%=      5-min Rain = 0
KST2 142219Z 19019KT 28/11 A3001 RMK A01 T02780107  RH  034%=      5-min Rain = 0
KST2 142220Z 19016KT 28/11 A3001 RMK A01 T02770107  RH  035%=      5-min Rain = 0
KST2 142221Z 19015KT 28/11 A3001 RMK A01 T02760108  RH  035%=      5-min Rain = 0
KST2 142222Z 18016KT 28/11 A3001 RMK A01 T02770109  RH  035%=      5-min Rain = 0
KST2 142223Z 20016KT 28/11 A3001 RMK A01 T02770109  RH  035%=      5-min Rain = 0
KST2 142224Z 19015KT 28/11 A3001 RMK A01 T02780109  RH  035%=      5-min Rain = 0
KST2 142225Z 19014KT 28/11 A3001 RMK A01 T02770110  RH  035%=      5-min Rain = 0
KST2 142226Z 19013KT 28/11 A3001 RMK A01 T02760111  RH  036%=      5-min Rain = 0
KST2 142227Z 18014KT 28/11 A3001 RMK A01 T02770112  RH  036%=      5-min Rain = 0
KST2 142228Z 18018KT 28/11 A3001 RMK A01 T02770111  RH  035%=      5-min Rain = 0
KST2 142229Z 18018KT 28/11 A3001 RMK A01 T02770109  RH  035%=      5-min Rain = 0
KST2 142230Z 19017KT 28/11 A3001 RMK A01 T02770108  RH  035%=      5-min Rain = 0
KST2 142231Z 20016KT 28/11 A3001 RMK A01 T02760107  RH  035%=      5-min Rain = 0
KST2 142232Z 21016KT 28/10 A3001 RMK A01 T02780102  RH  033%=      5-min Rain = 0
KST2 142233Z 21018KT 28/10 A3001 RMK A01 T02790103  RH  033%=      5-min Rain = 0
KST2 142234Z 20016KT 28/10 A3001 RMK A01 T02790104  RH  034%=      5-min Rain = 0
KST2 142235Z 20017KT 28/10 A3001 RMK A01 T02800103  RH  033%=      5-min Rain = 0
KST2 142236Z 20019KT 28/10 A3001 RMK A01 T02800103  RH  033%=      5-min Rain = 0
KST2 142237Z 20017KT 28/10 A3001 RMK A01 T02790103  RH  033%=      5-min Rain = 0
KST2 142238Z 20018KT 28/10 A3001 RMK A01 T02780104  RH  034%=      5-min Rain = 0
KST2 142239Z 20018KT 28/11 A3001 RMK A01 T02770105  RH  034%=      5-min Rain = 0
KST2 142240Z 19016KT 28/11 A3001 RMK A01 T02780108  RH  035%=      5-min Rain = 0
KST2 142241Z 20016KT 28/11 A3001 RMK A01 T02770109  RH  035%=      5-min Rain = 0
KST2 142242Z 19016KT 28/11 A3001 RMK A01 T02760109  RH  035%=      5-min Rain = 0
KST2 142243Z 18016KT 28/11 A3001 RMK A01 T02770108  RH  035%=      5-min Rain = 0
KST2 142244Z 18016KT 28/11 A30 RMK A01 T02770108  RH  035%=      5-min Rain = 0
KST2 142245Z 18015KT 28/11 A30 RMK A01 T02780108  RH  035%=      5-min Rain = 0
KST2 142246Z 18017KT 28/11 A30 RMK A01 T02790108  RH  035%=      5-min Rain = 0
KST2 142247Z 18019KT 28/11 A30 RMK A01 T02790109  RH  035%=      5-min Rain = 0
KST2 142248Z 18016KT 28/11 A30 RMK A01 T02780110  RH  035%=      5-min Rain = 0
KST2 142249Z 19016G22KT 28/11 A30 RMK A01 T02770109  RH  035%=      5-min Rain = 0
KST2 142250Z 20020KT 28/11 A30 RMK A01 T02770105  RH  034%=      5-min Rain = 0
KST2 142251Z 20018KT 28/10 A30 RMK A01 T02770104  RH  034%=      5-min Rain = 0
KST2 142252Z 20016KT 28/10 A3001 RMK A01 T02760103  RH  034%=      5-min Rain = 0
KST2 142253Z 20015KT 28/10 A30 RMK A01 T02770103  RH  034%=      5-min Rain = 0
KST2 142254Z 21016KT 28/11 A30 RMK A01 T02780105  RH  034%=      5-min Rain = 0
KST2 142255Z 21016KT 28/11 A30 RMK A01 T02780105  RH  034%=      5-min Rain = 0
KST2 142256Z 21018KT 28/11 A30 RMK A01 T02770105  RH  034%=      5-min Rain = 0
KST2 142257Z 20014KT 28/11 A3001 RMK A01 T02760106  RH  034%=      5-min Rain = 0
KST2 142258Z 19015KT 28/11 A30 RMK A01 T02760106  RH  035%=      5-min Rain = 0
KST2 142259Z 20013KT 28/11 A30 RMK A01 T02770108  RH  035%=      5-min Rain = 0
KST2 142300Z 20016KT 28/11 A30 RMK A01 T02770108  RH  035%=      5-min Rain = 0
KST2 142301Z 19017KT 28/11 A30 RMK A01 T02770108  RH  035%=      5-min Rain = 0
KST2 142302Z 19017KT 28/11 A30 RMK A01 T02760109  RH  035%=      5-min Rain = 0
KST2 142303Z 19017KT 27/11 A30 RMK A01 T02740108  RH  035%=      5-min Rain = 0
KST2 142304Z 19016KT 27/11 A30 RMK A01 T02730108  RH  036%=      5-min Rain = 0
KST2 142305Z 20014KT 27/11 A30 RMK A01 T02730108  RH  036%=      5-min Rain = 0
KST2 142306Z 20015KT 27/11 A30 RMK A01 T02730108  RH  036%=      5-min Rain = 0
KST2 142307Z 20015KT 27/11 A30 RMK A01 T02720107  RH  035%=      5-min Rain = 0
KST2 142308Z 20015KT 27/11 A30 RMK A01 T02720107  RH  036%=      5-min Rain = 0
KST2 142309Z 21016KT 27/11 A30 RMK A01 T02720108  RH  036%=      5-min Rain = 0
KST2 142310Z 20016KT 27/11 A30 RMK A01 T02710109  RH  036%=      5-min Rain = 0
KST2 142311Z 20016KT 27/11 A30 RMK A01 T02710109  RH  036%=      5-min Rain = 0
KST2 142312Z 20016KT 27/11 A30 RMK A01 T02710108  RH  036%=      5-min Rain = 0
KST2 142313Z 20015KT 27/11 A30 RMK A01 T02710108  RH  036%=      5-min Rain = 0
KST2 142314Z 20018KT 27/11 A30 RMK A01 T02710108  RH  036%=      5-min Rain = 0
KST2 142315Z 20014KT 27/11 A30 RMK A01 T02700108  RH  036%=      5-min Rain = 0
KST2 142316Z 20016KT 27/11 A30 RMK A01 T02700108  RH  036%=      5-min Rain = 0
KST2 142317Z 19017KT 27/11 A30 RMK A01 T02690109  RH  037%=      5-min Rain = 0
KST2 142318Z 20014KT 27/11 A30 RMK A01 T02690109  RH  037%=      5-min Rain = 0
KST2 142319Z 19013KT 27/11 A30 RMK A01 T02690109  RH  037%=      5-min Rain = 0
KST2 142320Z 19013KT 27/11 A30 RMK A01 T02690110  RH  037%=      5-min Rain = 0
KST2 142321Z 19016KT 27/11 A30 RMK A01 T02690110  RH  037%=      5-min Rain = 0
KST2 142322Z 19015KT 27/11 A30 RMK A01 T02690111  RH  037%=      5-min Rain = 0
KST2 142323Z 18015KT 27/11 A30 RMK A01 T02690111  RH  037%=      5-min Rain = 0
KST2 142324Z 19015KT 27/11 A30 RMK A01 T02690111  RH  037%=      5-min Rain = 0
KST2 142325Z 19015KT 27/11 A30 RMK A01 T02690111  RH  037%=      5-min Rain = 0
KST2 142326Z 18013G18KT 27/11 A30 RMK A01 T02690111  RH  037%=      5-min Rain = 0
KST2 142327Z 18016KT 27/11 A30 RMK A01 T02690111  RH  037%=      5-min Rain = 0
KST2 142328Z 18014KT 27/11 A30 RMK A01 T02680112  RH  038%=      5-min Rain = 0
KST2 142329Z 18014KT 27/11 A30 RMK A01 T02680112  RH  038%=      5-min Rain = 0
KST2 142330Z 20013KT 27/11 A30 RMK A01 T02670111  RH  038%=      5-min Rain = 0
KST2 142331Z 19013KT 27/11 A30 RMK A01 T02670112  RH  038%=      5-min Rain = 0
KST2 142332Z 19012KT 27/11 A30 RMK A01 T02670112  RH  038%=      5-min Rain = 0
KST2 142333Z 20013KT 27/11 A30 RMK A01 T02670112  RH  038%=      5-min Rain = 0
KST2 142334Z 20013KT 27/11 A30 RMK A01 T02670112  RH  038%=      5-min Rain = 0
KST2 142335Z 20012KT 27/11 A30 RMK A01 T02670112  RH  038%=      5-min Rain = 0
KST2 142336Z 20011KT 27/11 A30 RMK A01 T02660112  RH  038%=      5-min Rain = 0
KST2 142337Z 19012KT 27/11 A30 RMK A01 T02670112  RH  038%=      5-min Rain = 0
KST2 142338Z 20011KT 27/11 A30 RMK A01 T02670112  RH  038%=      5-min Rain = 0
KST2 142339Z 19012KT 27/11 A30 RMK A01 T02670112  RH  038%=      5-min Rain = 0
KST2 142340Z 20012KT 27/11 A30 RMK A01 T02670112  RH  038%=      5-min Rain = 0
KST2 142341Z 19013KT 27/11 A30 RMK A01 T02670112  RH  038%=      5-min Rain = 0
KST2 142342Z 19013KT 27/11 A30 RMK A01 T02670112  RH  038%=      5-min Rain = 0
KST2 142343Z 20012KT 27/11 A2999 RMK A01 T02680113  RH  038%=      5-min Rain = 0
KST2 142344Z 19011KT 27/11 A30 RMK A01 T02680113  RH  038%=      5-min Rain = 0
KST2 142345Z 19013KT 27/11 A30 RMK A01 T02670113  RH  038%=      5-min Rain = 0
KST2 142346Z 19014KT 27/11 A30 RMK A01 T02680114  RH  038%=      5-min Rain = 0
KST2 142347Z 19014KT 27/11 A30 RMK A01 T02670114  RH  038%=      5-min Rain = 0
KST2 142348Z 19013KT 27/11 A30 RMK A01 T02670114  RH  039%=      5-min Rain = 0
KST2 142349Z 19013KT 27/12 A2999 RMK A01 T02670115  RH  039%=      5-min Rain = 0
KST2 142350Z 19013KT 27/12 A2999 RMK A01 T02670115  RH  039%=      5-min Rain = 0
KST2 142351Z 19012KT 27/12 A2999 RMK A01 T02670115  RH  039%=      5-min Rain = 0
KST2 142352Z 19014KT 27/11 A2999 RMK A01 T02660114  RH  038%=      5-min Rain = 0
KST2 142353Z 19014KT 27/11 A2999 RMK A01 T02660113  RH  038%=      5-min Rain = 0
KST2 142354Z 19013KT 27/11 A2999 RMK A01 T02660113  RH  038%=      5-min Rain = 0
KST2 142355Z 20013KT 27/11 A2999 RMK A01 T02660113  RH  038%=      5-min Rain = 0
KST2 142356Z 19014KT 27/11 A2999 RMK A01 T02660112  RH  038%=      5-min Rain = 0
KST2 142357Z 19012KT 27/11 A2999 RMK A01 T02650112  RH  038%=      5-min Rain = 0
KST2 142358Z 19013KT 27/11 A2999 RMK A01 T02650112  RH  038%=      5-min Rain = 0
KST2 142359Z 19015KT 27/11 A2999 RMK A01 T02650111  RH  038%=      5-min Rain = 0
KST2 150000Z 19013KT 27/11 A2999 RMK A01 T02650111  RH  038%=      5-min Rain = 0
KST2 150001Z 19012KT 26/11 A2999 RMK A01 T02640111  RH  038%=      5-min Rain = 0
KST2 150002Z 19011KT 26/11 A2999 RMK A01 T02630110  RH  038%=      5-min Rain = 0
KST2 150003Z 19013KT 26/11 A2999 RMK A01 T02620110  RH  039%=      5-min Rain = 0
KST2 150004Z 19012KT 26/11 A2999 RMK A01 T02620111  RH  039%=      5-min Rain = 0
KST2 150005Z 19011KT 26/11 A2999 RMK A01 T02610111  RH  039%=      5-min Rain = 0
KST2 150006Z 19012KT 26/11 A2999 RMK A01 T02610111  RH  039%=      5-min Rain = 0
KST2 150007Z 19012KT 26/11 A2999 RMK A01 T02600111  RH  039%=      5-min Rain = 0
KST2 150008Z 19011KT 26/11 A2999 RMK A01 T02600111  RH  039%=      5-min Rain = 0
KST2 150009Z 19011KT 26/11 A2999 RMK A01 T02590110  RH  039%=      5-min Rain = 0
KST2 150010Z 19012KT 26/11 A2999 RMK A01 T02590110  RH  039%=      5-min Rain = 0
KST2 150011Z 19012KT 26/11 A2999 RMK A01 T02590110  RH  039%=      5-min Rain = 0
KST2 150012Z 19012KT 26/11 A2999 RMK A01 T02580110  RH  039%=      5-min Rain = 0
KST2 150013Z 19012KT 26/11 A2999 RMK A01 T02570110  RH  039%=      5-min Rain = 0
KST2 150014Z 19013KT 26/11 A2999 RMK A01 T02570109  RH  040%=      5-min Rain = 0
KST2 150015Z 19013KT 26/11 A2999 RMK A01 T02560109  RH  040%=      5-min Rain = 0
KST2 150016Z 19013KT 26/11 A2999 RMK A01 T02570110  RH  040%=      5-min Rain = 0
KST2 150017Z 19013KT 26/11 A2999 RMK A01 T02570110  RH  040%=      5-min Rain = 0
KST2 150018Z 19013KT 26/11 A2999 RMK A01 T02570110  RH  040%=      5-min Rain = 0
KST2 150019Z 19011KT 26/11 A2999 RMK A01 T02560109  RH  040%=      5-min Rain = 0
KST2 150020Z 19011KT 26/11 A2999 RMK A01 T02550109  RH  040%=      5-min Rain = 0
KST2 150021Z 19012KT 26/11 A2999 RMK A01 T02550109  RH  040%=      5-min Rain = 0
KST2 150022Z 19011KT 26/11 A2999 RMK A01 T02550110  RH  040%=      5-min Rain = 0
KST2 150023Z 19012KT 25/11 A2998 RMK A01 T02540110  RH  040%=      5-min Rain = 0
KST2 150024Z 18011KT 25/11 A2998 RMK A01 T02530110  RH  040%=      5-min Rain = 0
KST2 150025Z 19012KT 25/11 A2998 RMK A01 T02520109  RH  041%=      5-min Rain = 0
KST2 150026Z 19012KT 25/11 A2998 RMK A01 T02520110  RH  041%=      5-min Rain = 0
KST2 150027Z 19012KT 25/11 A2998 RMK A01 T02520110  RH  041%=      5-min Rain = 0
KST2 150028Z 19011KT 25/11 A2998 RMK A01 T02520110  RH  041%=      5-min Rain = 0
KST2 150029Z 19011KT 25/11 A2998 RMK A01 T02510110  RH  041%=      5-min Rain = 0
KST2 150030Z 19011KT 25/11 A2998 RMK A01 T02500110  RH  041%=      5-min Rain = 0
KST2 150031Z 19011KT 25/11 A2998 RMK A01 T02500110  RH  041%=      5-min Rain = 0
KST2 150032Z 19012KT 25/11 A2998 RMK A01 T02500110  RH  041%=      5-min Rain = 0
KST2 150033Z 19012KT 25/11 A2998 RMK A01 T02500110  RH  041%=      5-min Rain = 0
KST2 150034Z 19010KT 25/11 A2998 RMK A01 T02500110  RH  042%=      5-min Rain = 0
KST2 150035Z 18011KT 25/11 A2998 RMK A01 T02490110  RH  042%=      5-min Rain = 0
KST2 150036Z 18011KT 25/11 A2998 RMK A01 T02480110  RH  042%=      5-min Rain = 0
KST2 150037Z 18010KT 25/11 A2998 RMK A01 T02480110  RH  042%=      5-min Rain = 0
KST2 150038Z 18011KT 25/11 A2998 RMK A01 T02470110  RH  042%=      5-min Rain = 0
KST2 150039Z 18010KT 25/11 A2998 RMK A01 T02470110  RH  042%=      5-min Rain = 0
KST2 150040Z 18010KT 25/11 A2998 RMK A01 T02470111  RH  042%=      5-min Rain = 0
KST2 150041Z 19010KT 25/11 A2998 RMK A01 T02460110  RH  042%=      5-min Rain = 0
KST2 150042Z 18009KT 25/11 A2998 RMK A01 T02450110  RH  043%=      5-min Rain = 0
KST2 150043Z 19009KT 24/11 A2998 RMK A01 T02440109  RH  043%=      5-min Rain = 0
KST2 150044Z 19009KT 24/11 A2998 RMK A01 T02430109  RH  043%=      5-min Rain = 0
KST2 150045Z 19009KT 24/11 A2998 RMK A01 T02420109  RH  043%=      5-min Rain = 0
KST2 150046Z 18009KT 24/11 A2998 RMK A01 T02410109  RH  043%=      5-min Rain = 0
KST2 150047Z 18008KT 24/11 A2998 RMK A01 T02410109  RH  043%=      5-min Rain = 0
KST2 150048Z 18009KT 24/11 A2998 RMK A01 T02400109  RH  044%=      5-min Rain = 0
KST2 150049Z 18009KT 24/11 A2998 RMK A01 T02390109  RH  044%=      5-min Rain = 0
KST2 150050Z 18009KT 24/11 A2998 RMK A01 T02380109  RH  044%=      5-min Rain = 0
KST2 150051Z 18008KT 24/11 A2998 RMK A01 T02370108  RH  044%=      5-min Rain = 0
KST2 150052Z 18008KT 24/11 A2998 RMK A01 T02360108  RH  044%=      5-min Rain = 0
KST2 150053Z 18008KT 24/11 A2998 RMK A01 T02350108  RH  045%=      5-min Rain = 0
KST2 150054Z 18009KT 23/11 A2998 RMK A01 T02340107  RH  045%=      5-min Rain = 0
KST2 150055Z 18008KT 23/11 A2998 RMK A01 T02340107  RH  045%=      5-min Rain = 0
KST2 150056Z 18008KT 23/11 A2998 RMK A01 T02320106  RH  045%=      5-min Rain = 0
KST2 150057Z 18008KT 23/11 A2998 RMK A01 T02310105  RH  045%=      5-min Rain = 0
KST2 150058Z 18008KT 23/10 A2998 RMK A01 T02290104  RH  045%=      5-min Rain = 0
KST2 150059Z 18008KT 23/10 A2998 RMK A01 T02280104  RH  045%=      5-min Rain = 0
KST2 150100Z 18008KT 23/10 A2998 RMK A01 T02260104  RH  046%=      5-min Rain = 0
KST2 150101Z 18008KT 23/10 A2998 RMK A01 T02250103  RH  046%=      5-min Rain = 0
KST2 150102Z 18008KT 22/10 A2998 RMK A01 T02240102  RH  046%=      5-min Rain = 0
KST2 150103Z 18008KT 22/10 A2998 RMK A01 T02230103  RH  046%=      5-min Rain = 0
KST2 150104Z 18008KT 22/10 A2998 RMK A01 T02230103  RH  047%=      5-min Rain = 0
KST2 150105Z 18008KT 22/10 A2998 RMK A01 T02220102  RH  047%=      5-min Rain = 0
KST2 150106Z 18007KT 22/10 A2998 RMK A01 T02210103  RH  047%=      5-min Rain = 0
KST2 150107Z 18007KT 22/10 A2998 RMK A01 T02200102  RH  047%=      5-min Rain = 0
KST2 150108Z 18006KT 22/10 A2998 RMK A01 T02200102  RH  047%=      5-min Rain = 0
KST2 150109Z 18006KT 22/10 A2998 RMK A01 T02190102  RH  047%=      5-min Rain = 0
KST2 150110Z 18006KT 22/10 A2998 RMK A01 T02190101  RH  047%=      5-min Rain = 0
KST2 150111Z 18006KT 22/10 A2998 RMK A01 T02180101  RH  047%=      5-min Rain = 0
KST2 150112Z 18006KT 22/10 A2998 RMK A01 T02170101  RH  048%=      5-min Rain = 0
KST2 150113Z 18006KT 22/10 A2998 RMK A01 T02170102  RH  048%=      5-min Rain = 0
KST2 150114Z 18007KT 22/10 A2998 RMK A01 T02170102  RH  048%=      5-min Rain = 0
KST2 150115Z 18006KT 22/10 A2998 RMK A01 T02170101  RH  048%=      5-min Rain = 0
KST2 150116Z 18006KT 22/10 A2998 RMK A01 T02170101  RH  047%=      5-min Rain = 0
KST2 150117Z 17006KT 22/10 A2998 RMK A01 T02170101  RH  047%=      5-min Rain = 0
KST2 150118Z 17006KT 22/10 A2998 RMK A01 T02170100  RH  047%=      5-min Rain = 0
KST2 150119Z 17006KT 22/10 A2998 RMK A01 T02160099  RH  047%=      5-min Rain = 0
KST2 150120Z 17006KT 22/10 A2998 RMK A01 T02150098  RH  047%=      5-min Rain = 0
KST2 150121Z 17006KT 21/10 A2998 RMK A01 T02130098  RH  048%=      5-min Rain = 0
KST2 150122Z 17006KT 21/10 A2998 RMK A01 T02120099  RH  048%=      5-min Rain = 0
KST2 150123Z 17006KT 21/10 A2998 RMK A01 T02120100  RH  049%=      5-min Rain = 0
KST2 150124Z 17005KT 21/10 A2998 RMK A01 T02120101  RH  049%=      5-min Rain = 0
KST2 150125Z 17006KT 21/10 A2998 RMK A01 T02120102  RH  049%=      5-min Rain = 0
KST2 150126Z 17005KT 21/10 A2998 RMK A01 T02110102  RH  049%=      5-min Rain = 0
KST2 150127Z 17006KT 21/10 A2998 RMK A01 T02110102  RH  050%=      5-min Rain = 0
KST2 150128Z 17006KT 21/10 A2998 RMK A01 T02120102  RH  049%=      5-min Rain = 0
KST2 150129Z 17006KT 21/10 A2998 RMK A01 T02120102  RH  049%=      5-min Rain = 0
KST2 150130Z 17005KT 21/10 A2998 RMK A01 T02110102  RH  050%=      5-min Rain = 0
KST2 150131Z 17005KT 21/10 A2998 RMK A01 T02110103  RH  050%=      5-min Rain = 0
KST2 150132Z 17005KT 21/10 A2998 RMK A01 T02110102  RH  050%=      5-min Rain = 0
KST2 150133Z 17005KT 21/10 A2998 RMK A01 T02100102  RH  050%=      5-min Rain = 0
KST2 150134Z 17005KT 21/10 A2998 RMK A01 T02090102  RH  050%=      5-min Rain = 0
KST2 150135Z 17005KT 21/10 A2998 RMK A01 T02090101  RH  050%=      5-min Rain = 0
KST2 150136Z 17005KT 21/10 A2998 RMK A01 T02080101  RH  050%=      5-min Rain = 0
KST2 150137Z 17005KT 21/10 A2998 RMK A01 T02070100  RH  050%=      5-min Rain = 0
KST2 150138Z 16005KT 21/10 A2998 RMK A01 T02070099  RH  050%=      5-min Rain = 0
KST2 150139Z 16005KT 21/10 A2998 RMK A01 T02060097  RH  050%=      5-min Rain = 0
KST2 150140Z 16006KT 21/10 A2998 RMK A01 T02050097  RH  050%=      5-min Rain = 0
KST2 150141Z 15006KT 20/10 A2998 RMK A01 T02040096  RH  050%=      5-min Rain = 0
KST2 150142Z 15006KT 20/09 A2998 RMK A01 T02030094  RH  049%=      5-min Rain = 0
KST2 150143Z 15006KT 20/09 A2998 RMK A01 T02020092  RH  049%=      5-min Rain = 0
KST2 150144Z 16005KT 20/09 A2999 RMK A01 T02000091  RH  050%=      5-min Rain = 0
KST2 150145Z 16005KT 20/09 A2998 RMK A01 T01990091  RH  050%=      5-min Rain = 0
KST2 150146Z 16006KT 20/09 A2999 RMK A01 T01980091  RH  050%=      5-min Rain = 0
KST2 150147Z 16006KT 20/09 A2999 RMK A01 T01970090  RH  050%=      5-min Rain = 0
KST2 150148Z 16006KT 20/09 A2999 RMK A01 T01960086  RH  049%=      5-min Rain = 0
KST2 150149Z 16006KT 19/08 A2999 RMK A01 T01940084  RH  049%=      5-min Rain = 0
KST2 150150Z 16006KT 19/08 A2999 RMK A01 T01930083  RH  049%=      5-min Rain = 0
KST2 150151Z 16006KT 19/08 A2999 RMK A01 T01910083  RH  049%=      5-min Rain = 0
KST2 150152Z 16005KT 19/08 A2999 RMK A01 T01900083  RH  050%=      5-min Rain = 0
KST2 150153Z 16005KT 19/08 A2999 RMK A01 T01890084  RH  050%=      5-min Rain = 0
KST2 150154Z 16005KT 19/09 A2999 RMK A01 T01880085  RH  051%=      5-min Rain = 0
KST2 150155Z 16005KT 19/09 A2999 RMK A01 T01880086  RH  051%=      5-min Rain = 0
KST2 150156Z 17005KT 19/09 A2999 RMK A01 T01870086  RH  052%=      5-min Rain = 0
KST2 150157Z 17005KT 19/09 A2999 RMK A01 T01880088  RH  052%=      5-min Rain = 0
KST2 150158Z 17006KT 19/09 A2999 RMK A01 T01880090  RH  053%=      5-min Rain = 0
KST2 150159Z 17006KT 19/09 A2999 RMK A01 T01880092  RH  054%=      5-min Rain = 0
KST2 150200Z 17006KT 19/09 A2999 RMK A01 T01880093  RH  054%=      5-min Rain = 0
KST2 150201Z 18007KT 19/09 A2999 RMK A01 T01890093  RH  054%=      5-min Rain = 0
KST2 150202Z 18007KT 19/09 A2999 RMK A01 T01890093  RH  053%=      5-min Rain = 0
KST2 150203Z 18007KT 19/09 A2999 RMK A01 T01900093  RH  053%=      5-min Rain = 0
KST2 150204Z 18007KT 19/09 A2999 RMK A01 T01900092  RH  053%=      5-min Rain = 0
KST2 150205Z 18007KT 19/09 A2999 RMK A01 T01910091  RH  053%=      5-min Rain = 0
KST2 150206Z 18007KT 19/09 A2999 RMK A01 T01910092  RH  053%=      5-min Rain = 0
KST2 150207Z 18006KT 19/09 A2999 RMK A01 T01910091  RH  052%=      5-min Rain = 0
KST2 150208Z 18006KT 19/09 A2999 RMK A01 T01910091  RH  052%=      5-min Rain = 0
KST2 150209Z 18006KT 19/09 A2999 RMK A01 T01900092  RH  053%=      5-min Rain = 0
KST2 150210Z 18006KT 19/09 A2999 RMK A01 T01900092  RH  053%=      5-min Rain = 0
KST2 150211Z 17006KT 19/09 A2999 RMK A01 T01900093  RH  053%=      5-min Rain = 0
KST2 150212Z 17006KT 19/09 A2999 RMK A01 T01900093  RH  053%=      5-min Rain = 0
KST2 150213Z 17006KT 19/09 A2999 RMK A01 T01890094  RH  054%=      5-min Rain = 0
KST2 150214Z 17006KT 19/10 A2999 RMK A01 T01890095  RH  054%=      5-min Rain = 0
KST2 150215Z 17006KT 19/10 A2999 RMK A01 T01900096  RH  054%=      5-min Rain = 0
KST2 150216Z 17006KT 19/10 A2999 RMK A01 T01900095  RH  054%=      5-min Rain = 0
KST2 150217Z 16006KT 19/10 A2999 RMK A01 T01900095  RH  054%=      5-min Rain = 0
KST2 150218Z 16006KT 19/09 A2999 RMK A01 T01890093  RH  053%=      5-min Rain = 0
KST2 150219Z 16007KT 19/09 A2999 RMK A01 T01880091  RH  053%=      5-min Rain = 0
KST2 150220Z 16007KT 19/09 A30 RMK A01 T01870090  RH  053%=      5-min Rain = 0
KST2 150221Z 16007KT 19/09 A30 RMK A01 T01850087  RH  053%=      5-min Rain = 0
KST2 150222Z 16007KT 18/09 A30 RMK A01 T01830086  RH  053%=      5-min Rain = 0
KST2 150223Z 16007KT 18/09 A30 RMK A01 T01820085  RH  053%=      5-min Rain = 0
KST2 150224Z 16006KT 18/08 A30 RMK A01 T01810083  RH  053%=      5-min Rain = 0
KST2 150225Z 16007KT 18/08 A30 RMK A01 T01790083  RH  053%=      5-min Rain = 0
KST2 150226Z 16007KT 18/09 A2999 RMK A01 T01780085  RH  054%=      5-min Rain = 0
KST2 150227Z 16007KT 18/08 A2999 RMK A01 T01770083  RH  054%=      5-min Rain = 0
KST2 150228Z 16008KT 18/08 A2999 RMK A01 T01760081  RH  054%=      5-min Rain = 0
KST2 150229Z 16008KT 18/08 A2999 RMK A01 T01750082  RH  054%=      5-min Rain = 0
KST2 150230Z 16008KT 17/08 A2999 RMK A01 T01740081  RH  054%=      5-min Rain = 0
KST2 150231Z 16008KT 17/08 A2999 RMK A01 T01730081  RH  054%=      5-min Rain = 0
KST2 150232Z 16008KT 17/08 A2999 RMK A01 T01730083  RH  055%=      5-min Rain = 0
KST2 150233Z 16008KT 17/08 A2999 RMK A01 T01730083  RH  055%=      5-min Rain = 0
KST2 150234Z 16009KT 17/08 A2999 RMK A01 T01730082  RH  055%=      5-min Rain = 0
KST2 150235Z 16009KT 17/08 A2999 RMK A01 T01730083  RH  055%=      5-min Rain = 0
KST2 150236Z 16009KT 17/08 A2999 RMK A01 T01730083  RH  055%=      5-min Rain = 0
KST2 150237Z 16008KT 17/08 A2999 RMK A01 T01720083  RH  056%=      5-min Rain = 0
KST2 150238Z 16008KT 17/08 A2999 RMK A01 T01720084  RH  056%=      5-min Rain = 0
KST2 150239Z 16008KT 17/08 A2999 RMK A01 T01720083  RH  056%=      5-min Rain = 0
KST2 150240Z 16009KT 17/08 A2999 RMK A01 T01710082  RH  056%=      5-min Rain = 0
KST2 150241Z 16008KT 17/08 A2999 RMK A01 T01700082  RH  056%=      5-min Rain = 0
KST2 150242Z 16009KT 17/08 A2998 RMK A01 T01700083  RH  057%=      5-min Rain = 0
KST2 150243Z 16009KT 17/08 A2998 RMK A01 T01700084  RH  057%=      5-min Rain = 0
KST2 150244Z 16009KT 17/09 A2998 RMK A01 T01710086  RH  058%=      5-min Rain = 0
KST2 150245Z 16009KT 17/09 A2998 RMK A01 T01720087  RH  057%=      5-min Rain = 0
KST2 150246Z 16009KT 17/09 A2998 RMK A01 T01730089  RH  058%=      5-min Rain = 0
KST2 150247Z 16008KT 18/09 A2998 RMK A01 T01750090  RH  058%=      5-min Rain = 0
KST2 150248Z 16008KT 18/09 A2998 RMK A01 T01750090  RH  057%=      5-min Rain = 0
KST2 150249Z 16008KT 18/09 A2998 RMK A01 T01760090  RH  057%=      5-min Rain = 0
KST2 150250Z 16008KT 18/09 A2998 RMK A01 T01760091  RH  058%=      5-min Rain = 0
KST2 150251Z 16008KT 18/09 A2998 RMK A01 T01760092  RH  058%=      5-min Rain = 0
KST2 150252Z 16008KT 18/09 A2998 RMK A01 T01770093  RH  058%=      5-min Rain = 0
KST2 150253Z 16008KT 18/09 A2998 RMK A01 T01770094  RH  058%=      5-min Rain = 0
KST2 150254Z 16008KT 18/09 A2998 RMK A01 T01770094  RH  058%=      5-min Rain = 0
KST2 150255Z 16009KT 18/09 A2998 RMK A01 T01770094  RH  058%=      5-min Rain = 0
KST2 150256Z 16009KT 18/10 A2998 RMK A01 T01780095  RH  058%=      5-min Rain = 0
KST2 150257Z 16009KT 18/10 A2998 RMK A01 T01780095  RH  058%=      5-min Rain = 0
KST2 150258Z 16008KT 18/10 A2998 RMK A01 T01780095  RH  058%=      5-min Rain = 0
KST2 150259Z 16008KT 18/10 A2998 RMK A01 T01780095  RH  058%=      5-min Rain = 0
KST2 150300Z 16008KT 18/10 A2998 RMK A01 T01780095  RH  058%=      5-min Rain = 0
KST2 150301Z 16008KT 18/09 A2998 RMK A01 T01770094  RH  058%=      5-min Rain = 0
KST2 150302Z 16008KT 18/09 A2998 RMK A01 T01760094  RH  058%=      5-min Rain = 0
KST2 150303Z 16009KT 18/10 A2998 RMK A01 T01770095  RH  059%=      5-min Rain = 0
KST2 150304Z 16009KT 18/09 A2998 RMK A01 T01760094  RH  059%=      5-min Rain = 0
KST2 150305Z 16008KT 18/10 A2998 RMK A01 T01760095  RH  059%=      5-min Rain = 0
KST2 150306Z 17008KT 18/10 A2998 RMK A01 T01760095  RH  059%=      5-min Rain = 0
KST2 150307Z 17008KT 18/10 A2998 RMK A01 T01760096  RH  059%=      5-min Rain = 0
KST2 150308Z 17008KT 18/10 A2998 RMK A01 T01760096  RH  059%=      5-min Rain = 0
KST2 150309Z 17008KT 18/10 A2998 RMK A01 T01760096  RH  059%=      5-min Rain = 0
KST2 150310Z 18008KT 18/10 A2998 RMK A01 T01760096  RH  059%=      5-min Rain = 0
KST2 150311Z 17007KT 18/10 A2998 RMK A01 T01750096  RH  060%=      5-min Rain = 0
KST2 150312Z 17007KT 18/10 A2998 RMK A01 T01750096  RH  060%=      5-min Rain = 0
KST2 150313Z 17007KT 17/10 A2998 RMK A01 T01740095  RH  060%=      5-min Rain = 0
KST2 150314Z 18007KT 17/10 A2998 RMK A01 T01740095  RH  060%=      5-min Rain = 0
KST2 150315Z 18007KT 17/10 A2998 RMK A01 T01730095  RH  060%=      5-min Rain = 0
KST2 150316Z 18007KT 17/10 A2998 RMK A01 T01730095  RH  060%=      5-min Rain = 0
KST2 150317Z 18007KT 17/10 A2998 RMK A01 T01730096  RH  061%=      5-min Rain = 0
KST2 150318Z 18007KT 17/10 A2999 RMK A01 T01730098  RH  061%=      5-min Rain = 0
KST2 150319Z 18007KT 18/10 A2999 RMK A01 T01750099  RH  061%=      5-min Rain = 0
KST2 150320Z 18007KT 18/10 A2999 RMK A01 T01750100  RH  061%=      5-min Rain = 0
KST2 150321Z 18008KT 18/10 A2999 RMK A01 T01760102  RH  062%=      5-min Rain = 0
KST2 150322Z 19008KT 18/11 A2999 RMK A01 T01780105  RH  062%=      5-min Rain = 0
KST2 150323Z 19008KT 18/11 A2999 RMK A01 T01810107  RH  062%=      5-min Rain = 0
KST2 150324Z 18008KT 18/11 A2998 RMK A01 T01830106  RH  061%=      5-min Rain = 0
KST2 150325Z 19009KT 18/11 A2998 RMK A01 T01840106  RH  060%=      5-min Rain = 0
KST2 150326Z 19009KT 18/11 A2998 RMK A01 T01840106  RH  061%=      5-min Rain = 0
KST2 150327Z 19008KT 18/11 A2999 RMK A01 T01840106  RH  061%=      5-min Rain = 0
KST2 150328Z 19007KT 18/11 A2999 RMK A01 T01830105  RH  061%=      5-min Rain = 0
KST2 150329Z 19008KT 18/11 A2999 RMK A01 T01820105  RH  061%=      5-min Rain = 0
KST2 150330Z 19008KT 18/11 A2999 RMK A01 T01810106  RH  061%=      5-min Rain = 0
KST2 150331Z 19007KT 18/11 A2999 RMK A01 T01810106  RH  062%=      5-min Rain = 0
KST2 150332Z 19007KT 18/11 A2999 RMK A01 T01810106  RH  061%=      5-min Rain = 0
KST2 150333Z 19007KT 18/11 A2999 RMK A01 T01820106  RH  061%=      5-min Rain = 0
KST2 150334Z 19007KT 18/11 A2999 RMK A01 T01810106  RH  062%=      5-min Rain = 0
KST2 150335Z 19007KT 18/11 A2999 RMK A01 T01810106  RH  062%=      5-min Rain = 0
KST2 150336Z 19007KT 18/11 A2999 RMK A01 T01800106  RH  062%=      5-min Rain = 0
KST2 150337Z 19007KT 18/11 A2999 RMK A01 T01790106  RH  062%=      5-min Rain = 0
KST2 150338Z 19007KT 18/11 A2999 RMK A01 T01790106  RH  062%=      5-min Rain = 0
KST2 150339Z 19007KT 18/11 A2999 RMK A01 T01790107  RH  063%=      5-min Rain = 0
KST2 150340Z 19007KT 18/11 A2999 RMK A01 T01800108  RH  063%=      5-min Rain = 0
KST2 150341Z 19007KT 18/11 A2999 RMK A01 T01810108  RH  062%=      5-min Rain = 0
KST2 150342Z 19008KT 18/11 A2999 RMK A01 T01820109  RH  063%=      5-min Rain = 0
KST2 150343Z 19008KT 18/11 A2999 RMK A01 T01830110  RH  063%=      5-min Rain = 0
KST2 150344Z 19008KT 18/11 A2999 RMK A01 T01830110  RH  062%=      5-min Rain = 0
KST2 150345Z 19009KT 18/11 A2999 RMK A01 T01840111  RH  062%=      5-min Rain = 0
KST2 150346Z 19009KT 19/11 A2999 RMK A01 T01850112  RH  062%=      5-min Rain = 0
KST2 150347Z 19009KT 19/11 A2999 RMK A01 T01860113  RH  062%=      5-min Rain = 0
KST2 150348Z 19009KT 19/11 A2999 RMK A01 T01880114  RH  062%=      5-min Rain = 0
KST2 150349Z 19010KT 19/12 A2999 RMK A01 T01900116  RH  062%=      5-min Rain = 0
KST2 150350Z 19010KT 19/12 A2999 RMK A01 T01930116  RH  061%=      5-min Rain = 0
KST2 150351Z 19010KT 20/12 A2999 RMK A01 T01950117  RH  061%=      5-min Rain = 0
KST2 150352Z 19010KT 20/12 A2999 RMK A01 T01950117  RH  060%=      5-min Rain = 0
KST2 150353Z 19011KT 20/12 A2999 RMK A01 T01960117  RH  060%=      5-min Rain = 0
KST2 150354Z 19012KT 20/12 A2999 RMK A01 T01970118  RH  060%=      5-min Rain = 0
KST2 150355Z 19013KT 20/12 A2999 RMK A01 T01990119  RH  060%=      5-min Rain = 0
KST2 150356Z 19013KT 20/12 A2999 RMK A01 T02010120  RH  060%=      5-min Rain = 0
KST2 150357Z 19013KT 20/12 A2999 RMK A01 T02030120  RH  059%=      5-min Rain = 0
KST2 150358Z 19014KT 20/12 A2999 RMK A01 T02030121  RH  059%=      5-min Rain = 0
KST2 150359Z 19015KT 21/12 A2998 RMK A01 T02050122  RH  059%=      5-min Rain = 0
KST2 150400Z 19014KT 21/12 A2999 RMK A01 T02060121  RH  058%=      5-min Rain = 0
KST2 150401Z 19013KT 21/12 A2998 RMK A01 T02070121  RH  058%=      5-min Rain = 0
KST2 150402Z 19015KT 21/12 A2998 RMK A01 T02070121  RH  058%=      5-min Rain = 0
KST2 150403Z 19013KT 21/12 A2998 RMK A01 T02080121  RH  058%=      5-min Rain = 0
KST2 150404Z 19014KT 21/12 A2999 RMK A01 T02080121  RH  058%=      5-min Rain = 0
KST2 150405Z 19015KT 21/12 A2999 RMK A01 T02070121  RH  058%=      5-min Rain = 0
KST2 150406Z 19015KT 21/12 A2998 RMK A01 T02080122  RH  058%=      5-min Rain = 0
KST2 150407Z 19016KT 21/12 A2998 RMK A01 T02080121  RH  057%=      5-min Rain = 0
KST2 150408Z 19015KT 21/12 A2998 RMK A01 T02080121  RH  057%=      5-min Rain = 0
KST2 150409Z 19015KT 21/12 A2998 RMK A01 T02090122  RH  057%=      5-min Rain = 0
KST2 150410Z 19017KT 21/12 A2998 RMK A01 T02090121  RH  057%=      5-min Rain = 0
KST2 150411Z 19015KT 21/12 A2998 RMK A01 T02100121  RH  057%=      5-min Rain = 0
KST2 150412Z 19015KT 21/12 A2998 RMK A01 T02100121  RH  057%=      5-min Rain = 0
KST2 150413Z 19015KT 21/12 A2998 RMK A01 T02100121  RH  057%=      5-min Rain = 0
KST2 150414Z 19014KT 21/12 A2998 RMK A01 T02100121  RH  057%=      5-min Rain = 0
KST2 150415Z 19014KT 21/12 A2998 RMK A01 T02090121  RH  057%=      5-min Rain = 0
KST2 150416Z 19016KT 21/12 A2998 RMK A01 T02090121  RH  057%=      5-min Rain = 0
KST2 150417Z 19015KT 21/12 A2999 RMK A01 T02090120  RH  057%=      5-min Rain = 0
KST2 150418Z 19015KT 21/12 A2999 RMK A01 T02090121  RH  057%=      5-min Rain = 0
KST2 150419Z 19016KT 21/12 A2999 RMK A01 T02100121  RH  057%=      5-min Rain = 0
KST2 150420Z 19014KT 21/12 A2999 RMK A01 T02100121  RH  057%=      5-min Rain = 0
KST2 150421Z 19015KT 21/12 A2999 RMK A01 T02090120  RH  057%=      5-min Rain = 0
KST2 150422Z 19014KT 21/12 A2999 RMK A01 T02090120  RH  057%=      5-min Rain = 0
KST2 150423Z 19014KT 21/12 A2999 RMK A01 T02100120  RH  057%=      5-min Rain = 0
KST2 150424Z 19013KT 21/12 A2999 RMK A01 T02100120  RH  057%=      5-min Rain = 0
KST2 150425Z 19015KT 21/12 A2999 RMK A01 T02080120  RH  057%=      5-min Rain = 0
KST2 150426Z 19014KT 21/12 A2999 RMK A01 T02080120  RH  057%=      5-min Rain = 0
KST2 150427Z 19015KT 21/12 A2999 RMK A01 T02080120  RH  057%=      5-min Rain = 0
KST2 150428Z 19014KT 21/12 A2999 RMK A01 T02090120  RH  057%=      5-min Rain = 0
KST2 150429Z 19014KT 21/12 A30 RMK A01 T02090120  RH  057%=      5-min Rain = 0
KST2 150430Z 19015KT 21/12 A2999 RMK A01 T02080120  RH  057%=      5-min Rain = 0
KST2 150431Z 19015KT 21/12 A30 RMK A01 T02080120  RH  057%=      5-min Rain = 0
KST2 150432Z 19014KT 21/12 A30 RMK A01 T02080120  RH  057%=      5-min Rain = 0
KST2 150433Z 19014KT 21/12 A30 RMK A01 T02080120  RH  057%=      5-min Rain = 0
KST2 150434Z 19015KT 21/12 A30 RMK A01 T02070120  RH  057%=      5-min Rain = 0
KST2 150435Z 19014KT 21/12 A30 RMK A01 T02070120  RH  058%=      5-min Rain = 0
KST2 150436Z 19015KT 21/12 A30 RMK A01 T02070120  RH  057%=      5-min Rain = 0
KST2 150437Z 19013KT 21/12 A30 RMK A01 T02070120  RH  057%=      5-min Rain = 0
KST2 150438Z 19013KT 21/12 A30 RMK A01 T02070120  RH  057%=      5-min Rain = 0
KST2 150439Z 19014KT 21/12 A30 RMK A01 T02060120  RH  058%=      5-min Rain = 0
KST2 150440Z 19013KT 21/12 A30 RMK A01 T02060120  RH  058%=      5-min Rain = 0
KST2 150441Z 19013KT 21/12 A30 RMK A01 T02060120  RH  058%=      5-min Rain = 0
KST2 150442Z 19015KT 21/12 A30 RMK A01 T02060120  RH  058%=      5-min Rain = 0
KST2 150443Z 19014KT 21/12 A30 RMK A01 T02060120  RH  058%=      5-min Rain = 0
KST2 150444Z 19014KT 21/12 A30 RMK A01 T02060120  RH  058%=      5-min Rain = 0
KST2 150445Z 19014KT 21/12 A30 RMK A01 T02060120  RH  058%=      5-min Rain = 0
KST2 150446Z 19015KT 21/12 A30 RMK A01 T02060120  RH  058%=      5-min Rain = 0
KST2 150447Z 19016KT 21/12 A30 RMK A01 T02060120  RH  058%=      5-min Rain = 0
KST2 150448Z 19014KT 21/12 A30 RMK A01 T02070120  RH  057%=      5-min Rain = 0
KST2 150449Z 19015KT 21/12 A30 RMK A01 T02070120  RH  058%=      5-min Rain = 0
KST2 150450Z 19015KT 21/12 A30 RMK A01 T02060120  RH  058%=      5-min Rain = 0
KST2 150451Z 19015KT 21/12 A30 RMK A01 T02050120  RH  058%=      5-min Rain = 0
KST2 150452Z 19014KT 20/12 A30 RMK A01 T02040120  RH  058%=      5-min Rain = 0
KST2 150453Z 19015KT 21/12 A30 RMK A01 T02050120  RH  058%=      5-min Rain = 0
KST2 150454Z 19015KT 21/12 A30 RMK A01 T02050120  RH  058%=      5-min Rain = 0
KST2 150455Z 19015KT 21/12 A30 RMK A01 T02050120  RH  058%=      5-min Rain = 0
KST2 150456Z 19015KT 21/12 A30 RMK A01 T02050120  RH  058%=      5-min Rain = 0
KST2 150457Z 19015KT 20/12 A30 RMK A01 T02040120  RH  058%=      5-min Rain = 0
KST2 150458Z 19017KT 21/12 A30 RMK A01 T02050120  RH  058%=      5-min Rain = 0
KST2 150459Z 19014KT 21/12 A30 RMK A01 T02050120  RH  058%=      5-min Rain = 0
KST2 150500Z 19015KT 21/12 A30 RMK A01 T02050120  RH  058%=      5-min Rain = 0
KST2 150501Z 20016KT 20/12 A30 RMK A01 T02040120  RH  058%=      5-min Rain = 0
KST2 150502Z 19016KT 20/12 A30 RMK A01 T02040120  RH  059%=      5-min Rain = 0
KST2 150503Z 19017KT 20/12 A30 RMK A01 T02040120  RH  058%=      5-min Rain = 0
KST2 150504Z 20016KT 20/12 A30 RMK A01 T02040120  RH  058%=      5-min Rain = 0
KST2 150505Z 19016KT 20/12 A30 RMK A01 T02040120  RH  058%=      5-min Rain = 0
KST2 150506Z 19014KT 20/12 A30 RMK A01 T02030120  RH  059%=      5-min Rain = 0
KST2 150507Z 19014KT 20/12 A30 RMK A01 T02030120  RH  059%=      5-min Rain = 0
KST2 150508Z 19015KT 20/12 A30 RMK A01 T02020120  RH  059%=      5-min Rain = 0
KST2 150509Z 20016KT 20/12 A30 RMK A01 T02010120  RH  059%=      5-min Rain = 0
KST2 150510Z 19016KT 20/12 A30 RMK A01 T02020120  RH  059%=      5-min Rain = 0
KST2 150511Z 19015KT 20/12 A30 RMK A01 T02020120  RH  059%=      5-min Rain = 0
KST2 150512Z 20016KT 20/12 A30 RMK A01 T02020121  RH  059%=      5-min Rain = 0
KST2 150513Z 19016KT 20/12 A30 RMK A01 T02020120  RH  059%=      5-min Rain = 0
KST2 150514Z 20016KT 20/12 A30 RMK A01 T02020120  RH  059%=      5-min Rain = 0
KST2 150515Z 20018KT 20/12 A30 RMK A01 T02020121  RH  059%=      5-min Rain = 0
KST2 150516Z 20016KT 20/12 A30 RMK A01 T02030121  RH  059%=      5-min Rain = 0
KST2 150517Z 20016KT 20/12 A30 RMK A01 T02030121  RH  059%=      5-min Rain = 0
KST2 150518Z 20018KT 20/12 A30 RMK A01 T02030121  RH  059%=      5-min Rain = 0
KST2 150519Z 19018KT 20/12 A30 RMK A01 T02030121  RH  059%=      5-min Rain = 0
KST2 150520Z 19019KT 20/12 A30 RMK A01 T02040122  RH  059%=      5-min Rain = 0
KST2 150521Z 20016G21KT 20/12 A30 RMK A01 T02040122  RH  059%=      5-min Rain = 0
KST2 150522Z 20017KT 20/12 A30 RMK A01 T02040122  RH  059%=      5-min Rain = 0
KST2 150523Z 20018KT 20/12 A30 RMK A01 T02030122  RH  060%=      5-min Rain = 0
KST2 150524Z 20016KT 20/12 A30 RMK A01 T02030122  RH  059%=      5-min Rain = 0
KST2 150525Z 20015KT 20/12 A30 RMK A01 T02020121  RH  060%=      5-min Rain = 0
KST2 150526Z 20018KT 20/12 A30 RMK A01 T02010122  RH  060%=      5-min Rain = 0
KST2 150527Z 20019KT 20/12 A30 RMK A01 T02010122  RH  060%=      5-min Rain = 0
KST2 150528Z 20019KT 20/12 A30 RMK A01 T02020122  RH  060%=      5-min Rain = 0
KST2 150529Z 20017G22KT 20/12 A30 RMK A01 T02030122  RH  060%=      5-min Rain = 0
KST2 150530Z 20018KT 20/12 A30 RMK A01 T02030122  RH  060%=      5-min Rain = 0
KST2 150531Z 20018KT 20/12 A30 RMK A01 T02030122  RH  060%=      5-min Rain = 0
KST2 150532Z 20016KT 20/12 A30 RMK A01 T02030122  RH  060%=      5-min Rain = 0
KST2 150533Z 20014KT 20/12 A30 RMK A01 T02030122  RH  060%=      5-min Rain = 0
KST2 150534Z 20015KT 20/12 A30 RMK A01 T02010122  RH  060%=      5-min Rain = 0
KST2 150535Z 20015KT 20/12 A30 RMK A01 T02010122  RH  060%=      5-min Rain = 0
KST2 150536Z 20017KT 20/12 A30 RMK A01 T02000122  RH  061%=      5-min Rain = 0
KST2 150537Z 20015KT 20/12 A30 RMK A01 T02010122  RH  060%=      5-min Rain = 0
KST2 150538Z 20017KT 20/12 A30 RMK A01 T02010122  RH  061%=      5-min Rain = 0
KST2 150539Z 20014KT 20/12 A30 RMK A01 T02000122  RH  061%=      5-min Rain = 0
KST2 150540Z 20015KT 20/12 A30 RMK A01 T02000122  RH  061%=      5-min Rain = 0
KST2 150541Z 20014KT 20/12 A30 RMK A01 T02000122  RH  061%=      5-min Rain = 0
KST2 150542Z 20015KT 20/12 A30 RMK A01 T01990122  RH  061%=      5-min Rain = 0
KST2 150543Z 21014KT 20/12 A30 RMK A01 T01990121  RH  061%=      5-min Rain = 0
KST2 150544Z 21015KT 20/12 A30 RMK A01 T01990122  RH  061%=      5-min Rain = 0
KST2 150545Z 21013KT 20/12 A30 RMK A01 T01990122  RH  061%=      5-min Rain = 0
KST2 150546Z 21013KT 20/12 A30 RMK A01 T01990122  RH  061%=      5-min Rain = 0
KST2 150547Z 21014KT 20/12 A30 RMK A01 T01980122  RH  061%=      5-min Rain = 0
KST2 150548Z 21014KT 20/12 A30 RMK A01 T01980122  RH  061%=      5-min Rain = 0
KST2 150549Z 21014KT 20/12 A30 RMK A01 T01980122  RH  061%=      5-min Rain = 0
KST2 150550Z 21014KT 20/12 A30 RMK A01 T01980122  RH  061%=      5-min Rain = 0
KST2 150551Z 21014KT 20/12 A30 RMK A01 T01980122  RH  061%=      5-min Rain = 0
KST2 150552Z 20014KT 20/12 A30 RMK A01 T01970121  RH  061%=      5-min Rain = 0
KST2 150553Z 20014KT 20/12 A30 RMK A01 T01970122  RH  062%=      5-min Rain = 0
KST2 150554Z 21013KT 20/12 A30 RMK A01 T01970121  RH  062%=      5-min Rain = 0
KST2 150555Z 21016KT 20/12 A30 RMK A01 T01960122  RH  062%=      5-min Rain = 0
KST2 150556Z 21016KT 20/12 A30 RMK A01 T01970122  RH  062%=      5-min Rain = 0
KST2 150557Z 21016KT 20/12 A30 RMK A01 T01970122  RH  062%=      5-min Rain = 0
KST2 150558Z 20015KT 20/12 A30 RMK A01 T01970122  RH  062%=      5-min Rain = 0
KST2 150559Z 21014KT 20/12 A30 RMK A01 T01980122  RH  062%=      5-min Rain = 0

Page generated in 0.0363 seconds.